     2              Observation         GPS                 RINEX VERSION / TYPE
ASRINEXO V2.2.0 UX USGS 18-OCT-94 16:12                     PGM / RUN BY / DATE
                                                            COMMENT
Original Marker Name: sbr1 Salisbury_No.1_1941_USCGS        COMMENT
Campaign Name: USGS-So. Cal Monit                           COMMENT
4-Character Station Name: SBR1                              COMMENT
6-Character Antenna Code: ASHL12                            COMMENT
Vertical Measurement Point: BBE                             COMMENT
Vertical Offset to Rinex Ref. Point: 0.0595                 COMMENT
Radial Measurement Point: EGP                               COMMENT
Radial Offset to Rinex Ref. Point: 0.1424                   COMMENT
Antenna Height from Field Measurement: 1.3500 m             COMMENT
Additional Antenna Identification Info.:                    COMMENT
Original Ashtech L1/L2                                      COMMENT
Revised Rinex header created by UCSD GPS archive for        COMMENT
SCEC DC on 22-Sep-1999 (1999.265) 23:44:48 GMT              COMMENT
For assistance contact dagnew@ucsd.edu or hjohnson@ucsd.edu COMMENT
                                                            COMMENT
SBR1 SALISBURY_NO.1_1941_USCGS                              MARKER NAME
                                                            MARKER NUMBER
JMS US GEOLOGICAL SURVEY                                    OBSERVER / AGENCY
107 ASHTECH L-XII 7A                                        REC # / TYPE / VERS
31 ASHTECH GEODETIC L                                       ANT # / TYPE
 -2510610.5100 -4612139.0400  3610825.7600                  APPROX POSITION XYZ
        1.2830        0.0000        0.0000                  ANTENNA: DELTA H/E/N
     1     2     0                                          WAVELENGTH FACT L1/2
     3    C1    L1    L2                                    # / TYPES OF OBSERV
    30                                                      INTERVAL
  1992     5    28     0    55    0.000000                  TIME OF FIRST OBS
  1992     5    28     2    58    0.000000                  TIME OF LAST OBS
                                                            END OF HEADER
 92  5 28  0 55  0.0000000  0  1 16
  22532529.634      -63402.44217   -141348.507
 92  5 28  0 55 30.0000000  0  1 16
  22520275.588     -127814.371 7   -191537.823 1
 92  5 28  0 56  0.0000000  0  5 20 24 12 13 16
  21925578.878     2306948.78918   -152066.502 1
  21043656.260     9709638.11219    140117.503 2
  22476345.260    -5498487.14417    196986.606
  24300420.719   -25259866.10015    196099.209
  22808017.108     -191134.414 6   -240878.005 2
 92  5 28  0 56 30.0000000  0  5 20 24 12 13 16
  21913836.187     2245243.084 8   -200148.816 2
  21054976.003     9769114.822 9    186462.981 5
  22495631.239    -5397159.268 7    275943.278 2
  24316300.336   -25176373.534 5    261158.628
  22796201.958     -253197.087 6   -289238.424 2
 92  5 28  0 57  0.0000000  0  5 20 24 12 13 16
  21902337.227     2184814.870 8   -247235.700 3
  21066538.699     9829874.284 9    233807.996 6
  22515167.754    -5294499.797 7    355937.597 2
  24332364.804   -25091957.648 5    326935.374
  22784641.451     -313972.232 6   -336595.588 2
 92  5 28  0 57 30.0000000  0  5 20 24 12 13 16
  21891070.487     2125616.618 8   -293364.135 4
  21078337.571     9891878.232 9    282122.759 7
  22534944.433    -5190561.991 7    436928.003 3
  24348598.896   -25006668.238 5    393394.875
  22773312.504     -373511.733 7   -382989.903 3
 92  5 28  0 58  0.0000000  0  5 20 24 12 13 16
  21880027.932     2067580.544 8   -338587.020 4
  21090363.325     9955078.087 9    331369.388 8
  22554950.603    -5085419.187 7    518857.360 3
  24364980.275   -24920576.266 5    460480.077
  22762200.427     -431896.855 7   -428484.695 3
 92  5 28  0 58 30.0000000  0  5 20 24 12 13 16
  21869191.094     2010625.487 8   -382967.530 5
  21102608.468    10019416.630 9    381503.308 8
  22575172.174    -4979158.206 7    601658.057 3
  24381498.210   -24833765.935 5    528124.586 1
  22751291.998     -489209.597 7   -473143.887 3
 92  5 28  0 59  0.0000000  0  5 20 24 12 13 16
  21858543.755     1954677.248 8   -426563.512 5
  21115056.780    10084839.971 9    432482.526 8
  22595591.368    -4871858.930 7    685267.799 4
  24398143.077   -24746313.523 5    596269.512 1
  22740574.058     -545538.506 7   -517036.476 3
 92  5 28  0 59 30.0000000  0  5 20 24 12 13 16
  21848073.473     1899661.495 8   -469432.872 5
  21127696.990    10151263.982 9    484241.488 9
  22616196.343    -4763601.088 7    769624.458 4
  24414889.484   -24658295.473 5    664855.114 1
  22730026.670     -600954.137 7   -560217.385 3
 92  5 28  1  0  0.0000000  0  6 20  3 24 12 13 16
  21837769.097     1845511.028 8   -511628.003 5
  24582176.793     8674027.61115    -98526.239
  21140511.558    10218611.080 9    536719.738 9
  22636960.089    -4654457.585 7    854671.259 4
  24431732.963   -24569781.791 5    733826.833 1
  22719650.643     -655513.893 7   -602731.363 4
 92  5 28  1  0 30.0000000  0  6 20  3 24 12 13 16
  21827620.013     1792168.655 8   -553193.435 5
  24573648.417     8629168.748 5   -133480.785
  21153491.283    10286813.875 9    589864.755 9
  22657887.311    -4544491.077 7    940359.363 4
  24448665.541   -24480832.372 5    803138.285 1
  22709416.628     -709272.690 7   -644621.223 4
 92  5 28  1  1  0.0000000  0  6 20  3 24 12 13 16
  21817612.011     1739581.259 8   -594170.590 5
  24565210.309     8584817.488 5   -168039.988
  21166619.404    10355795.381 9    643616.578 9
  22678957.235    -4433760.341 7   1026642.936 4
  24465659.277   -24391501.944 5    872746.510 1
  22699321.267     -762295.917 6   -685937.923 4
 92  5 28  1  1 30.0000000  0  6 20  3 24 12 13 16
  21807739.246     1687701.808 8   -634596.083 5
  24556856.892     8540922.965 5   -202243.386 1
  21179881.143    10425499.505 9    697931.464 9
  22700164.733    -4322318.518 7   1113480.644 4
  24482723.253   -24301840.571 5    942612.429 1
  22689366.898     -814634.446 7   -726721.127 4
 92  5 28  1  2  0.0000000  0  6 20  3 24 12 13 16
  21797992.274     1636488.690 8   -674502.383 5
  24548589.215     8497441.096 5   -236125.133 1
  21193278.509    10495890.782 9    752781.809 9
  22721500.033    -4210212.438 7   1200835.924 4
  24499836.516   -24211892.347 5   1012702.213 1
  22679528.399     -866340.561 7   -767011.476 4
 92  5 28  1  2 30.0010000  0  6 20  3 24 12 13 16
  21788369.536     1585907.826 8   -713915.972 5
  24540379.579     8454335.434 5   -269713.826 1
  21206795.221    10566936.170 9    808141.830 9
  22742948.714    -4097476.334 7   1288682.146 4
  24517005.780   -24121688.902 5   1082990.667 1
  22669798.845     -917449.532 7   -806836.583 4
 92  5 28  1  3  0.0010000  0  6 20  3 24 12 13 16
  21778860.928     1535933.498 8   -752856.936 6
  24532238.475     8411576.182 5   -303032.553 1
  21220433.919    10638599.171 9    863983.122 9
  22764518.842    -3984152.665 7   1376986.202 4
  24534212.098   -24031267.705 5   1153448.908 1
  22660184.800     -967981.635 6   -846212.138 4
 92  5 28  1  3 30.0010000  0  6 20  3 24 12 13 16
  21769457.968     1486533.410 8   -791350.459 6
  24524159.668     8369128.581 5   -336108.436 1
  21234182.611    10710857.643 9    920288.412 9
  22786189.519    -3870274.106 7   1465722.629 4
  24551456.760   -23940659.093 5   1224053.158 1
  22650677.212    -1017952.256 7   -885150.177 4
 92  5 28  1  4  0.0010000  0  6 20  3 24 12 13 16
  21760163.232     1437687.948 8   -829411.805 6
  24516138.810     8326969.578 5   -368959.392 1
  21248040.308    10783678.239 9    977031.730 9
  22807960.657    -3755865.829 7   1554871.847 4
  24568731.371   -23849885.040 5   1294786.184 1
  22641270.744    -1067380.065 7   -923665.228 4
 92  5 28  1  4 30.0010000  0  6 20  3 24 12 13 16
  21750971.416     1389373.066 8   -867059.725 6
  24508161.693     8285072.134 5   -401606.568 1
  21261998.045    10857026.534 9   1034186.228 9
  22829826.770    -3640957.842 7   1644410.410 4
  24586028.677   -23758972.210 5   1365627.121 1
  22631965.127    -1116280.498 7   -961769.374 4
 92  5 28  1  5  0.0010000  0  6 20  3 24 12 13 16
  21741874.304     1341571.552 8   -904307.606 6
  24500240.726     8243416.426 5   -434065.417 1
  21276052.525    10930881.545 9   1091735.587 9
  22851779.822    -3525572.611 7   1734320.874 4
  24603350.835   -23667939.802 5   1436561.479 1
  22622754.603    -1164666.638 7   -999472.756 4
 92  5 28  1  5 30.0010000  0  6 20  3 24 12 13 16
  21732872.376     1294267.532 8   -941167.827 6
  24492358.493     8201983.656 5   -466350.496 1
  21290196.104    11005205.656 9   1149650.454 9
  22873824.641    -3409731.726 7   1824586.417 4
  24620694.788   -23576805.959 5   1507574.918 1
  22613643.011    -1212561.312 7  -1036793.196 4
 92  5 28  1  6  0.0010000  0  6 20  3 24 12 13 16
  21723961.015     1247450.779 8   -977648.377 6
  24484511.755     8160760.446 5   -498472.399 1
  21304425.453    11079978.512 9   1207915.033 9
  22895950.283    -3293451.044 7   1915194.634 4
  24638051.572   -23485583.086 5   1578657.881 1
  22604622.196    -1259976.353 7  -1073739.860 4
 92  5 28  1  6 30.0010000  0  6 20  3 24 12 13 16
  21715144.928     1201107.755 8  -1013759.779 6
  24476707.228     8119730.201 5   -530443.931 1
  21318738.385    11155185.240 9   1266517.660 9
  22918162.266    -3176749.905 7   2006130.466 4
  24655424.755   -23394287.499 5   1649797.297 1
  22595685.293    -1306908.853 7  -1110310.535 4
 92  5 28  1  7  0.0010000  0  6 20  3 24 12 13 16
  21706411.824     1155230.255 8  -1049508.434 6
  24468928.543     8078881.806 5   -562273.639 1
  21333129.262    11230809.450 9   1325445.624 8
  22940444.581    -3059642.261 7   2097383.072 4
  24672816.465   -23302929.587 5   1720985.351 1
  22586849.689    -1353362.194 7  -1146507.842 4
 92  5 28  1  7 30.0010000  0  6 20  3 24 12 13 16
  21697767.578     1109802.340 8  -1084906.768 6
  24461192.609     8038196.205 5   -593976.582 1
  21347593.349    11306828.211 9   1384681.021 8
  22962806.220    -2942150.013 7   2188935.378 4
  24690201.909   -23211527.630 5   1792207.938 1
  22578099.317    -1399358.458 7  -1182349.012 4
 92  5 28  1  8  0.0010000  0  6 20  3 24 12 13 16
  21689210.302     1064827.362 8  -1119952.165 6
  24453485.184     7997673.939 5   -625552.276 1
  21362138.289    11383259.641 9   1444237.981 8
  22985233.634    -2824275.024 7   2280785.922 4
  24707608.698   -23120080.348 5   1863465.565 1
  22569434.056    -1444886.450 7  -1217825.252 4
 92  5 28  1  8 30.0010000  0  6 20  3 24 12 13 16
  21680734.750     1020289.448 8  -1154656.994 6
  24445794.908     7957296.170 5   -657015.274 1
  21376755.930    11460079.363 9   1504097.506 8
  23007738.424    -2706039.186 7   2372917.633 4
  24725019.205   -23028606.505 5   1934744.104 1
  22560854.445    -1489965.295 7  -1252951.549 4
 92  5 28  1  9  0.0010000  0  6 20  3 24 12 13 16
  21672343.289      976187.133 8  -1189022.396 6
  24438133.562     7917058.016 5   -688369.565 1
  21391447.529    11537290.478 9   1564262.006 8
  23030302.873    -2587449.751 7   2465324.885 3
  24742419.549   -22937109.982 5   2006040.186 1
  22552355.839    -1534623.237 7  -1287749.868 4
 92  5 28  1  9 30.0010000  0  6 20  3 24 12 13 16
  21664030.943      932509.228 8  -1223057.078 6
  24430501.925     7876945.612 5   -719625.792 1
  21406216.745    11614896.064 9   1624733.904 8
  23052935.945    -2468523.564 6   2557994.530 3
  24759835.902   -22845604.113 5   2077343.415 1
  22543933.590    -1578889.991 7  -1322243.383 4
 92  5 28  1 10  0.0010000  0  6 20  3 24 12 13 16
  21655797.653      889256.874 8  -1256760.200 6
  24422897.030     7836957.169 5   -750785.448 1
  21421059.679    11692896.895 9   1685513.771 8
  23075627.535    -2349265.150 6   2650923.067 3
  24777247.488   -22754089.671 5   2148653.226 1
  22535583.800    -1622759.632 7  -1356427.429 4
 92  5 28  1 10 30.0010000  0  6 20  3 24 12 13 16
  21647648.065      846420.964 8  -1290138.775 6
  24415303.377     7797080.814 5   -781857.798 1
  21435975.673    11771283.093 9   1746593.931 8
  23098380.884    -2229688.978 6   2744099.205 3
  24794668.248   -22662578.084 5   2219960.958 1
  22527305.961    -1666248.173 7  -1390314.525 4
 92  5 28  1 11  0.0010000  0  6 20  3 24 12 13 16
  21639575.913      803998.750 9  -1323195.005 6
  24407738.504     7757310.497 5   -812847.498 1
  21450965.745    11850052.051 9   1807972.338 8
  23121197.278    -2109803.957 6   2837515.987 3
  24812081.094   -22571074.705 5   2291262.284 1
  22519105.348    -1709362.656 7  -1423910.155 4
 92  5 28  1 11 30.0010000  0  6 20  3 24 12 13 16
  21631580.838      761989.662 9  -1355929.335 6
  24400184.334     7717642.880 5   -843757.199 1
  21466021.293    11929173.107 9   1869625.114 8
  23144070.064    -1989616.480 6   2931168.462 3
  24829490.821   -22479582.032 5   2362555.074 1
  22510975.216    -1752081.987 7  -1457197.871 4
 92  5 28  1 12  0.0010000  0  6 20  3 24 12 13 16
  21623664.399      720386.208 8  -1388347.578 6
  24392657.654     7678067.353 5   -874595.145 1
  21481138.118    12008606.603 9   1931521.343 8
  23166993.454    -1869139.407 6   3025046.592 3
  24846890.446   -22388109.992 5   2433831.995 1
  22502926.148    -1794387.529 7  -1490163.147 4
 92  5 28  1 12 30.0010000  0  6 20  3 24 12 13 16
  21615825.725      679187.731 9  -1420450.255 6
  24385142.667     7638580.349 5   -905364.057 1
  21496308.785    12088336.436 9   1993648.496 8
  23189973.116    -1748379.221 6   3119145.330 3
  24864298.794   -22296661.284 5   2505090.732 1
  22494949.121    -1836286.404 7  -1522811.549 4
 92  5 28  1 13  0.0010000  0  6 20  3 24 12 13 16
  21608063.079      638394.760 9  -1452236.947 6
  24377645.187     7599179.054 5   -936066.194 2
  21511534.914    12168344.178 9   2055992.183 8
  23213006.830    -1627341.502 6   3213460.336 3
  24881696.590   -22205238.490 5   2576329.073 1
  22487057.354    -1877769.380 7  -1555135.858 4
 92  5 28  1 13 30.0010000  0  5 20  3 24 12 16
  21600375.921      598006.063 9  -1483708.627 6
  24370160.929     7559859.769 5   -966704.468 2
  21526811.409    12248622.633 9   2118546.820 8
  23236088.181    -1506032.744 6   3307986.516 3
  22479243.564    -1918828.072 7  -1587129.540 4
 92  5 28  1 14  0.0010000  0  5 20  3 24 12 16
  21592767.908      558019.554 9  -1514866.919 6
  24362695.497     7520617.361 5   -997282.786 2
  21542142.135    12329192.228 9   2181328.320 8
  23259223.824    -1384460.659 6   3402717.902 3
  22471508.528    -1959474.232 7  -1618801.803 4
 92  5 28  1 14 30.0010000  0  5 20  3 24 12 16
  21585233.404      518435.085 9  -1545711.921 6
  24355250.841     7481448.714 5  -1027803.669 2
  21557533.270    12410075.675 9   2244354.379 8
  23282407.465    -1262631.332 6   3497649.742 3
  22463853.268    -1999709.460 7  -1650153.859 4
 92  5 28  1 15  0.0010000  0  5 20  3 24 12 16
  21577777.925      479250.588 9  -1576245.266 6
  24347805.255     7442349.376 5  -1058270.494 2
  21572985.713    12491274.193 9   2307625.958 8
  23305638.442    -1140552.055 6   3592776.331 3
  22456274.515    -2039532.282 7  -1681184.543 4
 92  5 28  1 15 30.0010000  0  5 20  3 24 12 16
  21570395.686      440467.232 9  -1606466.045 6
  24340377.927     7403317.174 5  -1088685.071 2
  21588498.414    12572787.702 9   2371142.950 8
  23328911.451    -1018227.694 6   3688093.916 3
  22448775.836    -2078953.864 7  -1711902.578 4
 92  5 28  1 16  0.0010000  0  5 20  3 24 12 16
  21563095.679      402084.768 9  -1636374.400 6
  24332956.595     7364348.592 5  -1119050.069 2
  21604070.263    12654616.890 9   2434905.948 8
  23352242.049     -895664.614 6   3783597.465 3
  22441342.902    -2117980.458 7  -1742312.813 4
 92  5 28  1 16 30.0010000  0  5 20  3 24 12 16
  21555864.356      364102.427 9  -1665970.980 6
  24325555.948     7325439.960 5  -1149368.322 2
  21619698.234    12736740.408 9   2498898.295 8
  23375606.165     -772869.071 6   3879282.205 3
  22433994.749    -2156614.158 7  -1772416.927 4
 92  5 28  1 17  0.0010000  0  5 20  3 24 12 16
  21548712.837      326520.280 9  -1695255.756 6
  24318161.987     7286588.907 5  -1179641.712 2
  21635376.391    12819138.302 9   2563104.439 8
  23399015.129     -649846.686 6   3975143.671 3
  22426714.439    -2194874.129 7  -1802229.813 4
 92  5 28  1 17 30.0010000  0  5 20  3 24 12 16
  21541639.203      289337.676 9  -1724229.176 6
  24310777.949     7247791.727 5  -1209873.165 2
  21651111.537    12901814.912 9   2627527.749 8
  23422471.610     -526603.689 6   4071177.015 3
  22419505.329    -2232753.853 7  -1831746.377 4
 92  5 28  1 18  0.0010000  0  5 20  3 24 12 16
  21534639.679      252554.245 9  -1752891.533 6
  24303402.545     7209044.914 5  -1240065.339 2
  21666893.991    12984766.159 9   2692165.072 8
  23445960.349     -403146.045 6   4167377.661 3
  22412370.179    -2270240.354 7  -1860956.579 4
 92  5 28  1 18 30.0010000  0  5 20  3 24 12 16
  21527716.872      216173.112 9  -1781240.421 6
  24296046.027     7170348.988 5  -1270217.877 2
  21682731.757    13067982.661 9   2757009.077 8
  23469495.736     -279476.385 6   4263743.513 3
  22405314.773    -2307334.008 7  -1889860.655 4
 92  5 28  1 19  0.0010000  0  5 20  3 24 12 16
  21520868.593      180196.055 9  -1809274.448 6
  24288684.324     7131703.140 5  -1300331.371 2
  21698616.021    13151460.953 9   2822057.088 8
  23493072.404     -155598.411 6   4360271.696 3
  22398333.386    -2344035.229 7  -1918458.917 4
 92  5 28  1 19 30.0010000  0  5 20  3 24 12 16
  21514099.219      144620.371 9  -1836995.727 6
  24281339.588     7093101.662 5  -1330410.359 1
  21714549.360    13235192.363 9   2887302.322 8
  23516682.170      -31520.497 6   4456955.612 2
  22391418.943    -2380339.538 7  -1946747.932 4
 92  5 28  1 20  0.0010000  0  5 20  3 24 12 16
  21507406.053      109451.087 9  -1864400.309 7
  24274003.877     7054546.505 5  -1360453.226 1
  21730527.729    13319161.541 9   2952732.837 8
  23540331.837       92756.380 6   4553794.648 2
  22384587.363    -2416254.593 7  -1974733.609 4
 92  5 28  1 20 30.0010000  0  5 20  3 24 12 16
  21500792.781       74688.077 9  -1891488.316 7
  24266677.729     7016034.901 5  -1390462.183 1
  21746552.415    13403368.208 9   3018348.400 8
  23564015.442      217226.907 6   4650784.511 2
  22377826.773    -2451786.184 7  -2002420.484 4
 92  5 28  1 21  0.0010000  0  5 20  3 24 12 16
  21494250.770       40330.566 9  -1918260.362 7
  24259353.589     6977563.093 5  -1420440.095 1
  21762620.841    13487817.832 9   3084153.281 8
  23587739.818      341884.124 6   4747919.887 2
  22371140.861    -2486920.544 7  -2029797.834 4
 92  5 28  1 21 30.0010000  0  5 20  3 24 12 16
  21487793.660        6381.224 9  -1944714.363 7
  24252041.441     6939130.771 5  -1450387.258 1
  21778740.771    13572517.849 9   3150153.274 8
  23611500.109      466725.102 6   4845198.401 2
  22364529.838    -2521640.927 7  -2056852.603 4
 92  5 28  1 22  0.0010000  0  5 20  3 24 12 16
  21481410.989      -27157.433 9  -1970848.338 7
  24244736.308     6900738.069 5  -1480303.543 2
  21794908.399    13657478.006 9   3216355.968 8
  23635286.152      591747.173 6   4942618.093 2
  22358009.532    -2555924.226 7  -2083566.798 4
 92  5 28  1 22 30.0010000  0  5 20  3 24 12 16
  21475108.931      -60282.136 9  -1996659.751 7
  24237437.141     6862385.340 5  -1510188.651 2
  21811125.342    13742705.421 9   3282766.933 8
  23659111.168      716947.733 6   5040176.810 2
  22351568.551    -2589753.119 7  -2109926.905 4
 92  5 28  1 23  0.0010000  0  5 20  3 24 12 16
  21468885.330      -92989.114 9  -2022145.673 7
  24230146.189     6824073.232 5  -1540042.117 2
  21827393.940    13828193.931 9   3349381.348 8
  23682968.922      842324.630 6   5137872.950 2
  22345220.985    -2623123.393 7  -2135929.661 4
 92  5 28  1 23 30.0010000  0  5 20  3 24 12 16
  21462738.355     -125276.886 9  -2047304.949 7
  24222862.102     6785800.476 5  -1569864.951 2
  21843709.155    13913929.900 9   3416188.573 7
  23706858.064      967873.770 6   5235703.274 2
  22338954.184    -2656055.780 7  -2161591.192 4
 92  5 28  1 24  0.0010000  0  5 20  3 24 12 16
  21456676.882     -157140.906 9  -2072134.022 7
  24215589.976     6747569.032 5  -1599655.606 2
  21860068.200    13999908.672 9   3483184.998 7
  23730782.251     1093594.339 6   5333667.216 2
  22332765.718    -2688562.927 7  -2186921.363 5
 92  5 28  1 24 30.0010000  0  5 20  3 24 12 16
  21450694.853     -188579.891 9  -2096631.892 7
  24208318.540     6709377.646 5  -1629415.024 2
  21876475.451    14086114.780 9   3550358.581 7
  23754740.286     1219482.160 6   5431761.426 2
  22326655.858    -2720673.868 7  -2211942.801 5
 92  5 28  1 25  0.0010000  0  5 20  3 24 12 16
  21444792.989     -219592.465 9  -2120797.498 7
  24201059.395     6671224.600 5  -1659144.596 2
  21892920.686    14172538.711 9   3617701.886 7
  23778728.809     1345532.756 6   5529982.548 2
  22320618.517    -2752399.070 7  -2236663.692 5
 92  5 28  1 25 30.0010000  0  5 20  3 24 12 16
  21438970.000     -250178.508 9  -2144630.775 7
  24193808.855     6633107.710 5  -1688845.961 2
  21909409.212    14259185.296 9   3685218.684 7
  23802741.555     1471740.778 6   5628326.277 2
  22314658.913    -2783726.698 7  -2261074.766 5
 92  5 28  1 26  0.0010000  0  5 20  3 24 12 16
  21433232.332     -280338.594 9  -2168132.104 7
  24186557.625     6595023.121 5  -1718522.097 2
  21925938.389    14346051.109 9   3752906.303 7
  23826787.998     1598100.131 6   5726787.963 2
  22308775.426    -2814630.995 7  -2285155.987 5
 92  5 28  1 26 30.0010000  0  5 20  3 24 12 16
  21427575.038     -310067.538 9  -2191297.485 7
  24179316.827     6556973.771 5  -1748170.810 2
  21942510.646    14433142.808 9   3820769.964 7
  23850867.388     1724610.759 6   5825367.455 2
  22302979.209    -2845102.902 7  -2308900.259 5
 92  5 28  1 27  0.0010000  0  5 20  3 24 12 16
  21422001.537     -339363.849 9  -2214125.766 7
  24172083.615     6518958.280 5  -1777793.133 2
  21959127.752    14520464.908 8   3888813.123 7
  23874964.466     1851268.140 6   5924061.375 2
  22297263.006    -2875126.820 7  -2332295.457 5
 92  5 28  1 27 30.0010000  0  5 20  3 24 12 16
  21416508.710     -368225.711 9  -2236615.518 7
  24164856.248     6480975.963 5  -1807389.582 2
  21975787.099    14608014.564 9   3957033.619 7
  23899095.151     1978068.800 6   6022866.888 2
  22291637.311    -2904701.536 7  -2355340.620 5
 92  5 28  1 28  0.0010000  0  5 20  3 24 12 16
  21411099.614     -396649.166 9  -2258763.627 7
  24157633.918     6443027.740 5  -1836959.497 2
  21992490.965    14695787.890 8   4025428.389 7
  23923253.956     2105010.867 6   6121782.611 2
  22286088.932    -2933849.683 7  -2378053.395 5
 92  5 28  1 28 30.0010000  0  5 20  3 24 12 16
  21405774.311     -424632.762 9  -2280569.018 7
  24150414.916     6405112.213 5  -1866503.951 2
  22009236.083    14783783.387 8   4093996.303 7
  23947442.261     2232090.151 6   6220805.238 2
  22280621.707    -2962591.237 7  -2400449.346 5
 92  5 28  1 29  0.0010000  0  5 20  3 24 12 16
  21400531.360     -452178.744 9  -2302033.405 7
  24143209.704     6367224.571 5  -1896026.676 2
  22026018.375    14871979.720 8   4162720.692 7
  23971643.457     2359298.846 6   6319928.760 2
  22275227.571    -2990918.076 7  -2422522.136 5
 92  5 28  1 29 30.0010000  0  5 20  3 24 12 16
  21395374.061     -479285.238 9  -2323155.316 7
  24136000.205     6329364.498 5  -1925527.902 2
  22042842.698    14960376.279 8   4231601.101 7
  23995872.173     2486633.692 6   6419150.485 2
  22269923.613    -3018821.835 7  -2444265.263 5
 92  5 28  1 30  0.0010000  0  5 20  3 24 12 16
  21390300.553     -505952.819 9  -2343935.220 7
  24128805.875     6291528.560 5  -1955010.354 2
  22059697.539    15048967.971 8   4300633.571 7
  24020119.357     2614088.747 6   6518465.931 2
  22264689.356    -3046293.453 7  -2465671.646 5
 92  5 28  1 30 30.0010000  0  5 20  3 24 12 16
  21385306.760     -532180.324 9  -2364372.218 7
  24121607.738     6253715.706 5  -1984474.813 2
  22076592.673    15137740.412 8   4369806.905 7
  24044397.720     2741659.766 6   6617871.759 2
  22259554.661    -3073305.701 7  -2486720.083 5
 92  5 28  1 31  0.0010000  0  5 20  3 24 12 16
  21380404.764     -557963.549 9  -2384463.027 7
  24114416.167     6215927.331 5  -2013920.171 2
  22093520.244    15226695.844 9   4439122.802 7
  24068699.826     2869345.525 6   6717366.936 2
  22254501.659    -3099841.123 7  -2507396.976 5
 92  5 28  1 31 30.0010000  0  5 20  3 24 12 16
  21375579.334     -583302.808 9  -2404207.864 7
  24107235.958     6178160.140 5  -2043349.042 2
  22110484.120    15315842.729 8   4508587.887 7
  24093021.238     2997139.694 6   6816946.623 2
  22249541.773    -3125911.720 7  -2527711.672 5
 92  5 28  1 32  0.0010000  0  5 20  3 24 12 16
  21370843.543     -608194.248 9  -2423603.762 7
  24100046.725     6140415.483 5  -2072760.337 2
  22127485.291    15405179.057 8   4578200.586 7
  24117360.789     3125040.687 6   6916609.497 2
  22244664.599    -3151525.158 8  -2547670.113 5
 92  5 28  1 32 30.0010000  0  5 20  3 24 12 16
  21366191.483     -632631.507 9  -2442645.762 7
  24092868.254     6102697.579 6  -2102150.770 2
  22144521.717    15494716.966 8   4647970.376 7
  24141717.547     3253050.143 6   7016356.963 2
  22239880.871    -3176679.327 7  -2567270.709 5
 92  5 28  1 33  0.0010000  0  5 20  3 24 12 16
  21361627.983     -656616.728 9  -2461335.524 7
  24085697.668     6065001.562 5  -2131524.199 2
  22161602.302    15584461.331 8   4717901.024 7
  24166093.402     3381160.079 6   7116182.673 2
  22235177.787    -3201387.856 7  -2586524.069 5
 92  5 28  1 33 30.0010000  0  5 20  3 24 12 16
  21357151.062     -680145.256 9  -2479669.397 7
  24078527.053     6027329.735 5  -2160878.774 2
  22178717.603    15674409.341 8   4787990.366 7
  24190498.546     3509369.966 6   7216086.270 2
  22230564.371    -3225641.470 7  -2605422.923 5
 92  5 28  1 34  0.0010000  0  5 20  3 24 12 16
  21352761.711     -703210.159 9  -2497642.012 7
  24071362.552     5989686.406 5  -2190211.094 2
  22195874.726    15764558.422 8   4858236.376 7
  24214912.775     3637681.359 6   7316068.984 2
  22226038.674    -3249421.189 7  -2623952.525 5
 92  5 28  1 34 30.0010000  0  5 20  3 24 12 16
  21348461.098     -725813.632 9  -2515255.084 7
  24064206.477     5952067.082 5  -2219524.728 2
  22213061.707    15854894.584 8   4928628.186 7
  24239342.083     3766086.674 6   7416124.835 2
  22221606.182    -3272717.075 7  -2642105.109 5
 92  5 28  1 35  0.0010000  0  5 20  3 24 12 16
  21344249.494     -747955.696 9  -2532508.607 7
  24057047.133     5914469.189 5  -2248821.732 2
  22230287.003    15945409.101 8   4999158.941 7
  24263803.199     3894580.351 6   7516249.581 2
  22217265.187    -3295527.272 7  -2659879.232 5
 92  5 28  1 35 30.0010000  0  5 20  3 24 12 16
  21340126.448     -769626.762 9  -2549395.116 7
  24049901.430     5876899.625 6  -2278096.650 2
  22247547.224    16036112.518 8   5069836.907 7
  24288267.193     4023166.913 6   7616446.656 2
  22213017.608    -3317842.379 7  -2677267.581 5
 92  5 28  1 36  0.0010000  0  5 20  3 24 12 16
  21336088.843     -790830.663 9  -2565917.606 7
  24042753.118     5839352.111 5  -2307354.333 2
  22264845.398    16127007.344 9   5140664.026 7
  24312747.105     4151837.074 6   7716708.887 2
  22208861.165    -3339689.087 7  -2694290.944 5
 92  5 28  1 36 30.0020000  0  5 20  3 24 12 16
  21332143.544     -811562.132 9  -2582071.971 7
  24035616.139     5801829.149 6  -2336592.924 2
  22282180.148    16218109.923 8   5211653.054 7
  24337256.428     4280595.880 6   7817040.240 2
  22204787.136    -3361077.132 7  -2710956.923 5
 92  5 28  1 37  0.0020000  0  5 20  3 24 12 16
  21328289.083     -831821.465 9  -2597858.427 7
  24028481.319     5764329.297 6  -2365813.483 2
  22299559.836    16309421.409 8   5282804.812 7
  24361772.256     4409427.910 5   7917428.595 2
  22200808.710    -3382015.532 8  -2727272.514 5
 92  5 28  1 37 30.0020000  0  5 20  3 24 12 16
  21324524.679     -851604.484 9  -2613273.734 7
  24021351.654     5726853.702 6  -2395015.159 2
  22316972.022    16400942.189 8   5354119.687 7
  24386301.275     4538336.877 5   8017876.855 2
  22196907.031    -3402512.763 8  -2743244.339 5
 92  5 28  1 38  0.0020000  0  5 20  3 24 12 16
  21320850.812     -870909.213 9  -2628316.349 7
  24014224.508     5689401.920 6  -2424198.306 2
  22334425.159    16492657.648 8   5425586.262 7
  24410845.463     4667319.541 5   8118382.625 2
  22193093.401    -3422560.913 8  -2758866.234 5
 92  5 28  1 38 30.0020000  0  5 20  3 24 12 16
  21317268.052     -889735.456 9  -2642986.127 7
  24007096.583     5651971.355 6  -2453364.892 2
  22351912.203    16584547.956 8   5497189.094 6
  24435400.294     4796370.356 5   8218941.458 2
  22189365.422    -3442137.926 7  -2774121.010 5
 92  5 28  1 39  0.0020000  0  5 20  3 24 12 16
  21313775.650     -908080.466 9  -2657280.914 7
  23999981.369     5614562.837 6  -2482514.323 2
  22369428.267    16676595.183 8   5568914.178 6
  24459976.081     4925487.414 5   8319551.882 2
  22185733.436    -3461230.949 8  -2788998.631 5
 92  5 28  1 39 30.0020000  0  5 20  3 24 12 16
  21310378.462     -925943.316 9  -2671199.994 7
  23992860.608     5577175.389 6  -2511647.325 2
  22386969.274    16768783.735 8   5640749.392 6
  24484554.356     5054666.463 5   8420210.659 2
  22182186.112    -3479842.791 7  -2803501.335 5
 92  5 28  1 40  0.0020000  0  7 20  3 24 12 25 16 17
  21307072.711     -943319.531 9  -2684739.878 7
  23985757.206     5539811.025 6  -2540762.336 2
  22404540.349    16861115.921 8   5712696.538 6
  24509149.389     5183906.984 5   8520917.298 2
  25170439.118     5111425.62315  -1955609.546 1
  22178743.236    -3497958.803 7  -2817617.674 5
  25133492.695   -12980653.15514   -147954.127
 92  5 28  1 40 30.0020000  0  7 20  3 24 12 25 16 17
  21303857.017     -960208.151 9  -2697899.830 7
  23978650.326     5502468.285 6  -2569860.499 2
  22422139.216    16953596.082 8   5784758.984 6
  24533756.684     5313204.647 5   8621668.412 2
  25169133.072     5104578.373 5  -1960945.075 1
  22175386.459    -3515589.183 8  -2831355.580 5
  25118865.611   -13057483.424 4   -207834.464
 92  5 28  1 41  0.0020000  0  7 20  3 24 12 25 16 17
  21300737.376     -976603.434 9  -2710675.356 7
  23971546.204     5465150.791 6  -2598939.021 2
  22439765.574    17046232.108 8   5856942.877 6
  24558367.516     5442559.915 5   8722464.507 2
  25167921.760     5098206.114 5  -1965910.394 1
  22172126.037    -3532746.510 7  -2844724.860 5
  25104266.918   -13134188.715 4   -267604.934
 92  5 28  1 41 30.0020000  0  7 20  3 24 12 25 16 17
  21297708.813     -992509.726 9  -2723069.855 7
  23964452.425     5427851.845 6  -2628003.062 2
  22457424.039    17139025.606 8   5929249.485 6
  24582991.479     5571963.481 5   8823298.195 2
  25166794.271     5092308.126 5  -1970506.309 1
  22168948.506    -3549435.528 8  -2857729.237 5
  25089692.148   -13210783.964 5   -327280.507
 92  5 28  1 42  0.0020000  0  7 20  3 24 12 25 16 17
  21294774.894    -1007925.981 9  -2735082.508 7
  23957355.348     5390570.435 6  -2657053.419 2
  22475114.072    17231983.579 8   6001684.262 6
  24607627.614     5701411.324 5   8924166.358 2
  25165770.330     5086896.111 5  -1974723.500 1
  22165863.942    -3565642.555 8  -2870358.046 5
  25075131.797   -13287272.663 5   -386882.092 1
 92  5 28  1 42 30.0020000  0  7 20  3 24 12 25 16 17
  21291937.778    -1022847.000 9  -2746709.266 7
  23950268.734     5353309.708 6  -2686087.649 2
  22492834.715    17325099.230 8   6074241.905 6
  24632269.954     5830903.594 5   9025069.116 2
  25164830.540     5081980.208 5  -1978554.021 1
  22162872.283    -3581357.465 7  -2882603.393 5
  25060608.981   -13363639.254 5   -446388.182 1
 92  5 28  1 43  0.0020000  0  7 20  3 24 12 25 16 17
  21289193.358    -1037268.574 9  -2757946.835 7
  23943178.702     5316071.294 6  -2715104.511 2
  22510582.938    17418366.207 8   6146917.449 6
  24656923.387     5960439.194 5   9126005.681 2
  25163995.319     5077567.242 5  -1981992.690 1
  22159978.416    -3596562.939 7  -2894451.759 5
  25046100.675   -13439868.576 5   -505787.179 1
 92  5 28  1 43 30.0020000  0  7 20  3 24 12 25 16 17
  21286545.231    -1051185.900 9  -2768791.490 7
  23936103.600     5278857.678 6  -2744102.055 2
  22528359.491    17511789.109 8   6219714.497 6
  24681575.981     6090017.736 5   9226975.751 2
  25163249.975     5073665.340 5  -1985033.211 1
  22157183.841    -3611245.680 8  -2905892.800 5
  25031625.586   -13515938.152 5   -565061.877 1
 92  5 28  1 44  0.0020000  0  7 20  3 24 12 25 16 17
  21283991.869    -1064596.006 9  -2779240.935 7
  23929020.404     5241670.468 6  -2773079.003 2
  22546165.155    17605372.931 8   6292636.934 6
  24706247.371     6219637.575 5   9327977.902 2
  25162607.040     5070274.595 5  -1987675.242 1
  22154491.705    -3625401.285 8  -2916923.090 5
  25017183.174   -13591819.351 5   -624189.674 1
 92  5 28  1 44 30.0020000  0  7 20  3 24 12 25 16 17
  21281537.078    -1077501.399 9  -2789297.063 8
  23921947.790     5204504.936 6  -2802039.118 2
  22564003.555    17699106.245 8   6365675.873 6
  24730911.776     6349291.414 5   9429006.531 2
  25162050.655     5067389.005 5  -1989923.757 1
  22151899.339    -3639034.104 8  -2927546.013 5
  25002781.624   -13667512.255 5   -683170.752 1
 92  5 28  1 45  0.0020000  0  7 20  3 24 12 25 16 17
  21279176.932    -1089900.664 9  -2798958.809 8
  23914885.399     5167360.099 6  -2830983.027 2
  22581871.036    17793001.834 8   6438841.246 6
  24755595.968     6478975.230 5   9530058.541 2
  25161606.782     5065014.163 5  -1991774.267 1
  22149399.610    -3652155.027 8  -2937770.066 5
  24988407.266   -13743040.260 5   -742023.477 1
 92  5 28  1 45 30.0020000  0  7 20  3 24 12 25 16 17
  21276915.358    -1101791.704 9  -2808224.552 8
  23907813.085     5130236.208 6  -2859910.673 2
  22599770.265    17887069.446 8   6512140.668 6
  24780280.489     6608686.390 5   9631131.888 2
  25161248.710     5063156.429 5  -1993221.906 1
  22147000.041    -3664766.600 8  -2947597.211 5
  24974063.396   -13818406.452 4   -800749.801 1
 92  5 28  1 46  0.0020000  0  7 20  3 24 12 25 16 17
  21274747.049    -1113176.926 9  -2817096.139 8
  23900752.134     5093128.866 6  -2888825.372 2
  22617703.310    17981292.601 8   6585561.297 6
  24804960.843     6738417.793 5   9732221.016 2
  25160993.227     5061798.464 5  -1994279.977 1
  22144698.444    -3676865.794 8  -2957025.104 5
  24959747.077   -13893637.124 4   -859370.899 1
 92  5 28  1 46 30.0020000  0  7 20  3 24 12 25 16 17
  21272675.063    -1124054.336 9  -2825572.016 8
  23893694.120     5056037.940 6  -2917727.306 2
  22635661.687    18075658.615 8   6659093.259 6
  24829648.992     6868166.394 5   9833323.449 2
  25160825.583     5060944.224 5  -1994945.566 1
  22142496.049    -3688449.455 8  -2966051.267 5
  24945453.272   -13968754.776 4   -917903.819 1
 92  5 28  1 47  0.0020000  0  7 20  3 24 12 25 16 17
  21270707.346    -1134418.477 9  -2833647.966 8
  23886642.432     5018967.040 6  -2946613.624 2
  22653643.629    18170170.850 8   6732739.111 6
  24854349.222     6997932.711 5   9934439.745 2
  25160765.475     5060601.262 5  -1995212.770 1
  22140387.039    -3699518.416 8  -2974676.385 5
  24931184.470   -14043761.919 4   -976350.402 1
 92  5 28  1 47 30.0020000  0  7 20  3 24 12 25 16 17
  21268831.574    -1144270.883 9  -2841325.163 8
  23879590.444     4981912.575 6  -2975487.169 2
  22671655.549    18264810.920 8   6806484.610 6
  24879047.504     7127710.219 5  10035564.704 2
  25160788.319     5060761.503 5  -1995088.018 1
  22138386.044    -3710063.579 8  -2982893.356 5
  24916934.165   -14118650.428 4  -1034704.893 1
 92  5 28  1 48  0.0020000  0  7 20  3 24 12 25 16 17
  21267054.914    -1153609.194 9  -2848601.742 8
  23872541.154     4944874.720 6  -3004347.771 2
  22689685.458    18359570.668 8   6880323.350 6
  24903746.745     7257496.472 5  10136696.518 2
  25160921.037     5061417.007 5  -1994577.143 1
  22136473.009    -3720085.018 8  -2990702.225 5
  24902701.249   -14193426.506 4  -1092971.778 1
 92  5 28  1 48 30.0020000  0  7 20  3 24 12 25 16 17
  21265374.997    -1162430.861 9  -2855475.760 8
  23865497.860     4907854.374 6  -3033194.714 2
  22707745.585    18454461.809 8   6954264.502 6
  24928442.478     7387289.267 5  10237833.408 2
  25161138.656     5062571.064 5  -1993677.870 1
  22134664.211    -3729587.629 8  -2998106.794 5
  24888489.857   -14268076.064 4  -1151140.206 1
 92  5 28  1 49  0.0020000  0  7 20  3 24 12 25 16 17
  21263798.239    -1170732.794 9  -2861944.784 8
  23858456.035     4870852.753 6  -3062027.046 2
  22725828.556    18549494.102 8   7028315.602 6
  24953147.925     7517086.926 5  10338974.084 2
  25161454.458     5064218.897 5  -1992393.936 1
  22132950.987    -3738579.505 7  -3005113.405 5
  24874316.629   -14342591.709 4  -1209204.057 1
 92  5 28  1 49 30.0020000  0  7 20  3 24 12 25 16 17
  21262313.727    -1178513.466 9  -2868007.630 8
  23851420.685     4833869.629 6  -3090844.989 2
  22743939.618    18644670.916 8   7102479.333 6
  24977842.999     7646886.430 5  10440116.221 2
  25161857.019     5066341.997 5  -1990739.519 1
  22131342.151    -3747053.371 8  -3011716.384 5
  24860160.159   -14416963.018 4  -1267155.458 1
 92  5 28  1 50  0.0020000  0  7 20  3 24 12 25 16 17
  21260932.433    -1185773.215 9  -2873664.570 8
  23844378.770     4796902.929 6  -3119650.133 2
  22762080.420    18739997.241 8   7176759.556 6
  25002543.649     7776682.625 5  10541255.772 2
  25162348.199     5068932.899 4  -1988720.605 1
  22129825.081    -3755012.119 8  -3017917.961 5
  24846031.720   -14491190.164 4  -1324994.329 1
 92  5 28  1 50 30.0020000  0  7 20  3 24 12 25 16 17
  21259651.959    -1192510.280 9  -2878914.204 8
  23837349.806     4759952.471 6  -3148442.615 2
  22780247.992    18835474.333 8   7251157.292 6
  25027244.539     7906472.503 5  10642390.345 2
  25162933.693     5072002.240 5  -1986328.886 1
  22128408.681    -3762454.717 8  -3023717.350 6
  24831943.603   -14565261.375 4  -1382711.851 1
 92  5 28  1 51  0.0020000  0  7 20  3 24 12 25 16 17
  21258467.569    -1198723.548 9  -2883755.714 8
  23830324.620     4723017.233 6  -3177223.220 2
  22798445.365    18931094.352 8   7325666.366 6
  25051939.433     8036252.064 5  10743516.886 2
  25163614.972     5075562.378 5  -1983554.814 1
  22127093.372    -3769377.587 8  -3029111.754 6
  24817878.390   -14639175.867 5  -1440307.345 1
 92  5 28  1 51 30.0020000  0  7 20  3 24 12 25 16 17
  21257387.987    -1204409.467 9  -2888186.275 8
  23823297.035     4686099.299 6  -3205990.394 2
  22816668.759    19026845.987 8   7400278.019 6
  25076632.319     8166020.424 5  10844634.712 2
  25164381.511     5079621.319 5  -1980391.920 1
  22125874.866    -3775771.846 8  -3034094.266 5
  24803842.167   -14712926.519 5  -1497775.129 1
 92  5 28  1 52  0.0020000  0  7 20  3 24 12 25 16 17
  21256403.498    -1209565.639 9  -2892204.066 8
  23816278.683     4649199.575 6  -3234743.302 2
  22834907.592    19122715.146 8   7474981.236 6
  25101324.724     8295775.857 5  10945742.407 2
  25165256.186     5084203.403 5  -1976821.407 1
  22124759.038    -3781637.275 8  -3038664.688 5
  24789837.962   -14786516.577 5  -1555117.704 1
 92  5 28  1 52 30.0020000  0  7 20  3 24 12 25 16 17
  21255525.886    -1214191.992 9  -2895809.010 8
  23809257.364     4612316.101 6  -3263483.579 2
  22853174.876    19218696.431 8   7549771.827 6
  25126009.396     8425513.478 5  11046836.253 2
  25166224.815     5089320.275 5  -1972834.228 1
  22123742.412    -3786986.936 8  -3042833.203 6
  24775864.966   -14859946.842 5  -1612335.816 1
 92  5 28  1 53  0.0020000  0  7 20  3 24 12 25 16 17
  21254747.624    -1218279.596 9  -2898994.154 8
  23802244.859     4575456.256 6  -3292205.510 2
  22871459.728    19314790.653 8   7624650.393 6
  25150693.767     8555237.748 5  11147919.717 2
  25167304.907     5094975.849 5  -1968427.315 1
  22122825.017    -3791815.025 8  -3046595.311 6
  24761921.468   -14933200.932 5  -1669416.647 1
 92  5 28  1 53 30.0020000  0  7 20  3 24 12 25 16 17
  21254072.702    -1221826.658 9  -2901758.066 8
  23795236.071     4538620.317 6  -3320908.768 2
  22889766.434    19410992.413 8   7699612.786 6
  25175387.192     8684945.684 5  11248990.403 2
  25168479.584     5101163.526 5  -1963605.646 1
  22122003.586    -3796124.551 8  -3049953.350 6
  24748017.244   -15006277.614 5  -1726359.277 2
 92  5 28  1 54  0.0020000  0  7 20  3 24 12 25 16 17
  21253500.488    -1224829.203 9  -2904097.713 8
  23788228.662     4501810.152 6  -3349591.948 2
  22908097.604    19507321.856 8   7774674.665 6
  25200058.762     8814636.755 5  11350047.908 2
  25169765.484     5107885.212 5  -1958367.927 1
  22121283.034    -3799907.993 8  -3052901.444 5
  24734143.719   -15079173.425 5  -1783160.976 2
 92  5 28  1 54 30.0020000  0  7 20  3 24 12 25 16 17
  21253034.221    -1227288.263 9  -2906013.856 8
  23781229.587     4465023.539 6  -3378256.761 2
  22926450.748    19603785.204 7   7849840.885 6
  25224738.307     8944305.258 5  11451087.934 2
  25171136.165     5115130.924 5  -1952721.854 2
  22120664.083    -3803158.295 8  -3055434.124 5
  24720315.012   -15151887.750 5  -1839821.265 2
 92  5 28  1 55  0.0020000  0  7 20  3 24 12 25 16 17
  21252669.283    -1229203.769 9  -2907506.442 8
  23774233.541     4428258.941 6  -3406904.433 2
  22944832.583    19700377.768 7   7925107.775 5
  25249406.310     9073947.202 4  11552107.101 1
  25172617.949     5122890.803 5  -1946675.268 1
  22120151.678    -3805861.055 8  -3057540.115 6
  24706499.676   -15224434.057 5  -1896350.570 2
 92  5 28  1 55 30.0020000  0  7 20  3 24 12 25 16 17
  21252410.502    -1230568.404 9  -2908569.782 8
  23767239.742     4391521.951 6  -3435530.609 2
  22963243.407    19797109.498 8   8000483.124 5
  25274069.876     9203565.023 4  11653107.543 1
  25174190.571     5131165.737 5  -1940227.217 1
  22119740.332    -3808011.902 8  -3059216.064 6
  24692732.187   -15296819.932 5  -1952754.880 1
 92  5 28  1 56  0.0020000  0  7 20  3 24 12 25 16 17
  21252253.501    -1231379.371 9  -2909201.689 8
  23760256.257     4354813.933 6  -3464134.204 2
  22981676.387    19893979.093 7   8075965.910 5
  25298730.863     9333157.587 5  11754088.273 1
  25175864.791     5139965.590 5  -1933370.151 1
  22119437.752    -3809603.087 8  -3060455.916 6
  24678986.043   -15369042.760 5  -2009032.147 1
 92  5 28  1 56 30.0020000  0  7 20  3 24 12 25 16 17
  21252206.254    -1231632.663 9  -2909399.066 8
  23753276.159     4318137.460 6  -3492713.177 2
  23000131.250    19990968.102 7   8151541.742 5
  25323381.628     9462724.231 4  11855048.851 1
  25177638.783     5149289.660 5  -1926104.580 1
  22119242.677    -3810640.848 8  -3061264.521 6
  24665269.429   -15441094.050 5  -2065175.797 2
 92  5 28  1 57  0.0020000  0  7 20  3 24 12 25 16 17
  21252264.384    -1231328.396 9  -2909161.952 8
  23746302.957     4281491.253 6  -3521268.587 2
  23018612.406    20088079.176 7   8227212.666 5
  25348035.930     9592260.747 4  11955985.932 1
  25179518.902     5159128.618 5  -1918437.929 1
  22119147.343    -3811136.285 8  -3061650.530 6
  24651600.632   -15512963.830 5  -2121178.045 2
 92  5 28  1 57 30.0020000  0  7 20  3 24 12 25 16 17
  21252429.030    -1230462.879 9  -2908487.525 8
  23739335.600     4244877.438 6  -3549798.750 2
  23037112.509    20185307.627 7   8302975.062 5
  25372676.651     9721766.181 4  12056898.832 1
  25181484.461     5169476.733 4  -1910374.423 1
  22119154.928    -3811084.384 8  -3061610.044 6
  24637958.306   -15584629.908 5  -2177021.511 2
 92  5 28  1 58  0.0020000  0  7 20  3 24 12 25 16 17
  21252700.851    -1229032.864 9  -2907373.235 8
  23732378.166     4208297.494 6  -3578302.548 2
  23055637.914    20282654.702 7   8378829.912 5
  25397322.589     9851239.376 4  12157786.514 1
  25183548.022     5180329.054 4  -1901918.006 1
  22119273.885    -3810474.093 8  -3061134.462 6
  24624366.886   -15656078.822 5  -2232695.782 2
 92  5 28  1 58 30.0020000  0  7 20  3 24 12 25 16 17
  21253082.757    -1227034.528 9  -2905816.082 8
  23725423.071     4171753.987 6  -3606777.982 2
  23074187.662    20380130.148 7   8454784.770 5
  25421965.470     9980680.215 5  12258648.991 1
  25185705.599     5191669.306 4  -1893081.476 1
  22119491.954    -3809305.005 8  -3060223.430 6
  24610813.478   -15727313.029 5  -2288202.777 2
 92  5 28  1 59  0.0020000  0  7 20  3 24 12 25 16 17
  21253570.789    -1224463.803 9  -2903812.913 8
  23718474.452     4135249.770 6  -3635222.752 2
  23092762.143    20477741.847 7   8530845.791 5
  25446582.088    10110088.325 5  12359485.928 1
  25187955.391     5203491.099 4  -1883869.734 1
  22119826.403    -3807562.425 8  -3058865.557 6
  24597297.965   -15798331.833 5  -2343541.912 2
 92  5 28  1 59 30.0020000  0  7 20  3 24 12 25 16 17
  21254170.164    -1221317.394 9  -2901361.170 8
  23711535.216     4098786.842 6  -3663635.345 2
  23111361.777    20575480.207 7   8607005.542 5
  25471197.627    10239462.686 5  12460296.628 1
  25190297.850     5215804.960 4  -1874274.473 1
  22120270.336    -3805239.691 8  -3057055.595 6
  24583822.324   -15869146.506 5  -2398721.984 2
 92  5 28  2  0  0.0020000  0  7 20  3 24 12 25 16 17
  21254879.653    -1217590.296 9  -2898456.936 8
  23704606.772     4062368.939 6  -3692012.851 2
  23129985.874    20673355.698 7   8683272.153 5
  25495818.532    10368804.076 5  12561081.612 1
  25192732.644     5228625.356 4  -1864284.545 1
  22120820.005    -3802332.305 8  -3054790.059 6
  24570376.512   -15939766.760 5  -2453750.524 2
 92  5 28  2  0 30.0020000  0  7 20  3 24 12 25 16 17
  21255699.106    -1213283.596 9  -2895101.048 8
  23697684.654     4025993.628 6  -3720357.216 2
  23148634.254    20771353.041 7   8759633.676 5
  25520417.972    10498107.548 5  12661837.036 1
  25195273.745     5241962.957 5  -1853891.562 1
  22121486.623    -3798841.017 8  -3052069.539 6
  24556970.903   -16010211.294 5  -2508642.207 2
 92  5 28  2  1  0.0020000  0  7 20  3 24 12 25 16 17
  21256627.713    -1208399.211 9  -2891295.043 8
  23690769.312     3989657.607 6  -3748670.922 2
  23167305.478    20869468.247 7   8836087.044 5
  25545014.025    10627366.916 5  12762558.074 1
  25197917.854     5255835.637 5  -1843081.705 1
  22122257.060    -3794771.465 8  -3048898.424 5
  24543604.536   -16080475.886 5  -2563393.608 2
 92  5 28  2  1 30.0020000  0  7 20  3 24 12 25 16 17
  21257666.194    -1202937.681 9  -2887039.299 8
  23683862.243     3953359.563 6  -3776955.041 2
  23185997.148    20967701.038 7   8912632.066 5
  25569608.219    10756577.421 5  12863241.002 1
  25200660.176     5270262.328 5  -1831840.083 1
  22123144.116    -3790121.289 8  -3045274.863 6
  24530266.110   -16150567.266 5  -2618010.095 2
 92  5 28  2  2  0.0020000  0  7 20  3 24 12 25 16 17
  21258816.947    -1196899.244 9  -2882334.022 8
  23676961.681     3917097.433 6  -3805211.164 2
  23204714.241    21066046.659 7   8989265.000 5
  25594190.631    10885734.459 5  12963882.374 1
  25203511.202     5285238.944 5  -1820169.952 1
  22124137.418    -3784886.096 8  -3041195.470 6
  24516963.599   -16220476.210 5  -2672484.393 2
 92  5 28  2  2 30.0020000  0  7 20  3 24 12 25 16 17
  21260074.846    -1190284.380 9  -2877179.584 8
  23670066.394     3880869.830 6  -3833440.410 2
  23223450.520    21164503.824 7   9065984.827 5
  25618746.841    11014833.680 5  13064478.645 1
  25206471.383     5300764.760 5  -1808072.005 1
  22125248.749    -3779080.140 8  -3036671.300 6
  24503697.573   -16290190.805 5  -2726807.277 2
 92  5 28  2  3  0.0020000  0  7 20  3 24 12 25 16 17
  21261442.859    -1183093.345 9  -2871576.180 8
  23663179.981     3844675.584 6  -3861643.682 2
  23242207.125    21263079.891 7   9142797.326 5
  25643310.965    11143871.069 5  13165026.672 1
  25209520.032     5316826.543 5  -1795556.302 1
  22126459.851    -3772695.932 8  -3031696.558 6
  24490468.661   -16359685.543 5  -2780958.812 2
 92  5 28  2  3 30.0020000  0  7 20  3 24 12 25 16 17
  21262919.367    -1175328.706 9  -2865525.801 8
  23656297.436     3808511.297 6  -3889823.610 2
  23260984.985    21361758.337 7   9219689.605 5
  25667849.188    11272840.239 5  13265521.566 2
  25212678.406     5333404.533 5  -1782638.337 2
  22127786.342    -3765730.941 8  -3026269.272 6
  24477287.926   -16428966.350 5  -2834943.666 2
 92  5 28  2  4  0.0020000  0  7 20  3 24 12 25 16 17
  21264507.997    -1166987.985 9  -2859026.530 8
  23649426.882     3772377.847 6  -3917979.474 3
  23279783.112    21460530.244 7   9296654.691 5
  25692373.590    11401739.233 4  13365961.867 1
  25215926.867     5350493.808 5  -1769322.078 2
  22129219.440    -3758199.701 8  -3020400.733 6
  24464145.714   -16498022.021 5  -2888753.030 1
 92  5 28  2  4 30.0020000  0  7 20  3 24 12 25 16 17
  21266203.084    -1158069.550 9  -2852077.103 8
  23642553.211     3736276.064 6  -3946110.684 3
  23298597.996    21559405.560 7   9373700.367 5
  25716903.658    11530565.920 4  13466345.686 1
  25219284.902     5368093.019 5  -1755608.478 1
  22130759.984    -3750109.485 8  -3014096.636 6
  24451044.514   -16566859.020 5  -2942392.066 1
 92  5 28  2  5  0.0020000  0  7 20  3 24 12 25 16 17
  21268012.601    -1148575.731 9  -2844679.319 8
  23635683.287     3700202.783 6  -3974219.692 3
  23317427.691    21658373.216 7   9450817.972 5
  25741402.098    11659314.148 4  13566668.371 1
  25222725.321     5386206.021 5  -1741494.404 2
  22132404.315    -3741459.269 8  -3007356.180 6
  24437988.852   -16635483.901 5  -2995865.767 1
 92  5 28  2  5 30.0020000  0  7 20  3 24 12 25 16 17
  21269927.645    -1138505.519 9  -2836832.382 8
  23628827.633     3664157.971 6  -4002306.559 3
  23336277.082    21757425.440 7   9528001.501 5
  25765879.133    11787981.020 4  13666927.748 1
  25226271.026     5404846.390 5  -1726969.421 2
  22134153.844    -3732264.412 8  -3000191.322 6
  24424965.029   -16703910.245 5  -3049184.829 1
 92  5 28  2  6  0.0020000  0  6 20  3 24 25 16 17
  21271952.114    -1127859.923 9  -2828537.112 8
  23621977.016     3628139.677 6  -4030372.708 3
  23355142.002    21856570.003 7   9605256.991 5
  25229920.100     5424007.707 5  -1712038.579 1
  22136006.052    -3722527.664 8  -2992604.203 6
  24411986.144   -16772134.294 6  -3102346.224 1
 92  5 28  2  6 30.0020000  0  6 20  3 24 25 16 17
  21274091.553    -1116635.158 9  -2819790.532 8
  23615124.450     3592150.348 7  -4058416.292 3
  23374031.625    21955819.071 7   9682593.874 5
  25233657.193     5443679.553 4  -1696709.840 1
  22137963.577    -3712232.113 8  -2984581.663 6
  24399039.516   -16840157.562 6  -3155351.239 1
 92  5 28  2  7  0.0020000  0  6 20  3 24 25 16 17
  21276333.461    -1104829.856 9  -2810591.604 8
  23608284.295     3556190.877 7  -4086436.669 3
  23392935.428    22055166.064 7   9760007.088 5
  25237493.487     5463847.683 4  -1680994.386 2
  22140035.892    -3701367.132 8  -2976115.417 6
  24386134.770   -16907972.295 6  -3208193.701 1
 92  5 28  2  7 30.0020000  0  6 20  3 24 25 16 17
  21278694.686    -1092442.860 9  -2800939.379 8
  23601447.918     3520261.764 7  -4114433.354 3
  23411858.328    22154609.797 7   9837495.691 5
  25241426.284     5484488.126 4  -1664910.886 1
  22142211.336    -3689926.848 8  -2967200.887 6
  24373268.277   -16975589.962 6  -3260882.618 1
 92  5 28  2  8  0.0020000  0  6 20  3 24 25 16 17
  21281159.790    -1079473.315 9  -2790833.247 8
  23594616.937     3484362.706 7  -4142406.634 3
  23430802.063    22254147.286 7   9915057.338 5
  25245443.143     5505594.970 4  -1648464.059 1
  22144498.872    -3677903.711 8  -2957832.183 6
  24360440.038   -17043008.414 6  -3313416.345 1
 92  5 28  2  8 30.0020000  0  6 20  3 24 25 16 17
  21283739.893    -1065920.785 9  -2780272.825 8
  23587789.283     3448493.709 7  -4170356.487 3
  23449759.529    22353764.422 7   9992681.036 5
  25249547.962     5527179.529 4  -1631644.886 1
  22146902.339    -3665287.598 8  -2948001.407 6
  24347646.515   -17110237.234 6  -3365802.244 1
 92  5 28  2  9  0.0020000  0  6 20  3 24 25 16 17
  21286432.210    -1051783.607 9  -2769256.833 8
  23580972.003     3412656.001 7  -4198282.000 3
  23468723.501    22453442.728 7  10070352.431 5
  25253745.836     5549251.893 4  -1614445.524 1
  22149411.152    -3652083.188 8  -2937712.217 6
  24334883.451   -17177277.075 5  -3418040.928 1
 92  5 28  2  9 30.0020000  0  6 20  3 24 25 16 17
  21289231.342    -1037061.275 9  -2757784.891 8
  23574155.832     3376848.911 7  -4226183.582 3
  23487703.121    22553174.111 7  10148065.181 5
  25258045.399     5571835.428 5  -1596847.998 1
  22152036.374    -3638298.789 8  -2926971.108 6
  24322159.359   -17244131.119 5  -3470134.855 1
 92  5 28  2 10  0.0020000  0  6 20  3 24 25 16 17
  21292146.913    -1021751.014 9  -2745854.811 8
  23567347.515     3341074.345 7  -4254059.832 3
  23506697.492    22652971.029 7  10225828.965 5
  25262450.160     5594944.766 4  -1578840.840 1
  22154766.434    -3623933.092 8  -2915777.046 6
  24309478.138   -17310780.966 5  -3522069.680 2
 92  5 28  2 10 30.0020000  0  6 20  3 24 25 16 17
  21295170.260    -1005853.630 9  -2733467.239 8
  23560549.031     3305331.238 7  -4281911.603 3
  23525703.314    22752848.309 7  10303655.385 4
  25266942.700     5618570.391 5  -1560431.188 1
  22157611.944    -3608991.163 8  -2904133.930 6
  24296835.891   -17377224.475 6  -3573843.659 2
 92  5 28  2 11  0.0020000  0  6 20  3 24 25 16 17
  21298305.910     -989368.659 9  -2720621.805 8
  23553750.938     3269619.095 7  -4309739.201 3
  23544727.035    22852828.448 7  10381561.976 5
  25271536.839     5642718.805 5  -1541614.195 1
  22160563.161    -3593490.805 8  -2892055.720 6
  24284234.115   -17443451.896 6  -3625449.312 2
 92  5 28  2 11 30.0020000  0  6 20  3 24 25 16 17
  21301555.720     -972294.064 9  -2707316.911 8
  23546961.328     3233940.091 7  -4337540.970 3
  23563778.576    22952938.653 7  10459569.887 5
  25276233.088     5667403.564 5  -1522379.343 1
  22163617.687    -3577433.652 8  -2879543.637 6
  24271675.599   -17509453.830 5  -3676879.199 2
 92  5 28  2 12  0.0020000  0  6 20  3 24 25 16 17
  21304916.993     -954629.372 9  -2693552.217 8
  23540175.256     3198293.652 7  -4365317.362 3
  23582853.111    23053185.786 7  10537684.493 5
  25281033.005     5692612.289 5  -1502736.259 1
  22166780.077    -3560810.058 8  -2866590.173 6
  24259162.471   -17575228.104 5  -3728131.722 2
 92  5 28  2 12 30.0030000  0  6 20  3 24 25 16 17
  21308392.187     -936367.373 9  -2679322.095 8
  23533402.105     3162684.915 7  -4393064.384 3
  23601954.087    23153560.230 7  10615898.313 5
  25285924.749     5718348.414 5  -1482682.120 1
  22170054.531    -3543613.832 8  -2853190.490 6
  24246684.899   -17640768.095 5  -3779201.691 2
 92  5 28  2 13  0.0030000  0  6 20  3 24 25 16 17
  21311983.221     -917508.117 9  -2664626.567 8
  23526634.800     3127116.549 7  -4420779.952 3
  23621072.392    23254040.298 7  10694194.466 5
  25290925.527     5744612.762 5  -1462216.493 1
  22173434.631    -3525841.893 8  -2839342.200 6
  24234258.082   -17706068.142 6  -3830084.707 2
 92  5 28  2 13 30.0030000  0  6 20  3 24 25 16 17
  21315688.356     -898045.115 9  -2649460.596 8
  23519871.752     3091592.964 7  -4448460.563 3
  23640209.464    23354601.431 7  10772553.740 5
  25296025.476     5771385.605 5  -1441354.554 1
  22176931.979    -3507462.562 8  -2825020.633 6
  24221881.570   -17771124.652 6  -3880777.933 2
 92  5 28  2 14  0.0030000  0  6 20  3 24 25 16 17
  21319505.553     -877974.225 9  -2633820.949 8
  23513123.903     3056118.206 7  -4476103.159 3
  23659357.028    23455221.554 7  10850958.991 4
  25301207.898     5798646.172 5  -1420112.570 1
  22180550.834    -3488455.441 8  -2810209.866 6
  24209547.659   -17835932.924 6  -3931277.747 2
 92  5 28  2 14 30.0030000  0  6 20  3 24 25 16 17
  21323442.638     -857296.524 9  -2617708.450 8
  23506380.102     3020690.518 7  -4503709.077 3
  23678515.835    23555884.801 7  10929397.857 4
  25306491.980     5826398.866 5  -1398487.187 1
  22184283.880    -3468827.460 8  -2794915.301 6
  24197259.826   -17900497.683 6  -3981587.796 2
 92  5 28  2 15  0.0030000  0  6 20  3 24 25 16 17
  21327490.825     -836012.939 9  -2601123.846 8
  23499647.842     2985308.654 7  -4531279.277 3
  23697678.149    23656591.797 7  11007870.836 4
  25311866.479     5854636.653 5  -1376483.724 1
  22188139.031    -3448570.682 8  -2779130.776 6
  24185013.633   -17964837.472 6  -4031722.533 2
 92  5 28  2 15 30.0030000  0  6 20  3 24 25 16 17
  21331653.893     -814121.814 9  -2584065.848 8
  23492922.538     2949974.186 7  -4558812.558 3
  23716850.716    23757342.025 7  11086377.452 4
  25317330.287     5883365.737 4  -1354097.438 1
  22192113.919    -3427691.233 8  -2762861.056 6
  24172817.447   -18028955.266 6  -4081684.339 2
 92  5 28  2 16  0.0030000  0  6 20  3 24 25 16 17
  21335938.377     -791622.809 9  -2566534.164 8
  23486208.056     2914686.845 7  -4586309.112 3
  23736032.427    23858154.267 7  11164932.406 4
  25322894.945     5912596.309 4  -1331320.485 1
  22196199.161    -3406217.237 8  -2746128.053 6
  24160653.727   -18092849.236 6  -4131471.677 2
 92  5 28  2 16 30.0030000  0  6 20  3 24 25 16 17
  21340337.322     -768514.579 9  -2548527.759 8
  23479501.339     2879447.879 7  -4613767.971 3
  23755233.414    23959045.642 7  11243549.048 4
  25328557.724     5942335.634 5  -1308146.987 1
  22200393.587    -3384164.864 8  -2728944.364 6
  24148539.954   -18156522.709 6  -4181087.275 2
 92  5 28  2 17  0.0030000  0  6 20  3 24 25 16 17
  21344849.198     -744794.563 9  -2530044.634 8
  23472807.543     2844259.857 7  -4641187.087 3
  23774450.201    24060036.933 7  11322243.514 4
  25334313.380     5972581.068 5  -1284579.125 1
  22204701.455    -3361536.495 8  -2711311.839 6
  24136464.823   -18219967.163 6  -4230524.439 2
 92  5 28  2 17 30.0030000  0  6 20  3 24 25 16 17
  21349478.923     -720455.713 9  -2511079.321 8
  23466121.572     2809129.442 7  -4668561.361 3
  23793686.384    24161138.766 6  11401024.110 4
  25340172.464     6003354.861 5  -1260599.671 1
  22209116.678    -3338344.448 8  -2693240.098 6
  24124441.407   -18283157.472 6  -4279763.457 1
 92  5 28  2 18  0.0030000  0  6 20  3 24 25 16 17
  21354231.173     -695496.316 9  -2491630.451 8
  23459449.841     2774058.018 7  -4695889.684 3
  23812950.897    24262356.894 7  11479895.345 4
  25346128.710     6034658.930 4  -1236206.834 1
  22213634.401    -3314578.239 8  -2674720.954 6
  24112465.358   -18346090.983 6  -4328802.429 2
 92  5 28  2 18 30.0030000  0  6 20  3 24 25 16 17
  21359098.574     -669918.562 9  -2471699.746 8
  23452784.885     2739043.618 7  -4723173.566 3
  23832234.298    24363689.324 7  11558855.671 4
  25352178.702     6066493.726 4  -1211400.430 1
  22218271.081    -3290225.103 8  -2655744.478 6
  24100538.714   -18408774.667 6  -4377646.708 2
 92  5 28  2 19  0.0030000  0  6 20  3 24 25 16 17
  21364084.212     -643723.721 9  -2451288.201 8
  23446129.103     2704085.173 7  -4750413.844 3
  23851536.945    24465123.834 7  11637895.499 4
  25358341.266     6098855.257 4  -1186183.854 1
  22223019.554    -3265274.533 8  -2636302.433 6
  24088660.817   -18471199.951 6  -4426289.611 2
 92  5 28  2 19 30.0030000  0  6 20  3 24 25 16 17
  21369184.282     -616911.451 9  -2430395.536 8
  23439489.209     2669182.357 7  -4777610.753 3
  23870852.153    24566641.986 7  11717000.499 4
  25364587.531     6131733.955 4  -1160564.006 1
  22227886.325    -3239708.206 8  -2616380.609 6
  24076829.987   -18533366.505 6  -4474730.953 2
 92  5 28  2 20  0.0030000  0  6 20  3 24 25 16 17
  21374404.328     -589481.252 9  -2409021.362 8
  23432859.809     2634335.908 7  -4804763.772 3
  23890191.165    24668234.911 7  11796163.824 4
  25370942.382     6165108.803 4  -1134557.624 1
  22232871.124    -3213503.857 8  -2595961.607 6
  24065042.568   -18595280.355 6  -4522975.381 2
 92  5 28  2 20 30.0030000  0  6 20  3 24 25 16 17
  21379744.201     -561431.158 9  -2387164.163 8
  23426240.181     2599547.751 7  -4831871.360 3
  23909532.815    24769901.060 6  11875384.166 4
  25377396.374     6198972.567 4  -1108170.322 1
  22237980.546    -3186656.015 8  -2575041.208 6
  24053311.839   -18656936.319 6  -4571018.843 2
 92  5 28  2 21  0.0030000  0  6 20  3 24 25 16 17
  21385198.265     -532759.816 9  -2364822.874 8
  23419632.096     2564819.862 7  -4858932.032 3
  23928887.686    24871626.437 6  11954650.630 4
  25383927.533     6233329.310 4  -1081398.876 1
  22243211.505    -3159162.223 8  -2553617.435 6
  24041635.012   -18718329.776 6  -4618857.769 2
 92  5 28  2 21 30.0030000  0  6 20  3 24 25 16 17
  21390770.388     -503470.339 9  -2341999.900 8
  23413033.934     2530148.886 7  -4885948.313 3
  23948253.589    24973407.824 6  12033960.777 3
  25390558.642     6268186.643 4  -1054237.242 1
  22248564.389    -3131039.913 8  -2531703.954 6
  24029992.273   -18779483.619 6  -4666509.982 2
 92  5 28  2 22  0.0030000  0  6 20  3 24 25 16 17
  21396462.637     -473561.784 9  -2318694.555 8
  23406446.234     2495536.092 7  -4912919.249 3
  23967641.347    25075257.163 7  12113323.864 4
  25397291.501     6303555.948 4  -1026676.687 1
  22254032.034    -3102309.907 8  -2509316.912 6
  24018395.821   -18840410.740 6  -4713985.581 2
 92  5 28  2 22 30.0030000  0  6 20  3 24 25 16 17
  21402272.735     -443032.441 9  -2294905.468 8
  23399869.058     2460982.933 7  -4939843.735 3
  23987042.476    25177185.101 6  12192748.178 4
  25404116.546     6339441.079 4   -998714.329 1
  22259610.782    -3072990.135 8  -2486470.322 6
  24006848.774   -18901105.995 6  -4761280.484 2
 92  5 28  2 23  0.0030000  0  6 20  3 24 25 16 17
  21408200.801     -411880.101 9  -2270630.919 8
  23393306.001     2426492.163 7  -4966719.638 3
  24006451.549    25279188.612 6  12272231.393 4
  25411050.446     6375844.668 4   -970347.890 1
  22265298.025    -3043095.990 8  -2463176.160 6
  23995346.457   -18961564.901 6  -4808391.187 2
 92  5 28  2 23 30.0030000  0  6 20  3 24 25 16 17
  21414246.656     -380107.437 9  -2245873.018 8
  23386754.457     2392061.363 7  -4993548.790 3
  24025875.013    25381278.841 6  12351782.197 4
  25418062.771     6412753.542 4   -941587.738 1
  22271093.403    -3012640.038 8  -2439444.228 6
  23983887.310   -19021790.245 6  -4855319.915 2
 92  5 28  2 24  0.0030000  0  6 20  3 24 25 16 17
  21420411.408     -347700.291 9  -2220620.718 8
  23380217.093     2357705.119 7  -5020319.818 4
  24045320.061    25483466.573 6  12431408.962 4
  25425184.971     6450159.325 4   -912440.369 1
  22277000.334    -2981600.120 8  -2415257.266 6
  23972473.402   -19081744.402 6  -4902037.340 2
 92  5 28  2 24 30.0030000  0  6 20  3 24 25 16 17
  21426699.585     -314659.986 9  -2194875.044 8
  23373693.189     2323422.195 7  -5047033.758 4
  24064779.590    25585736.435 6  12511099.720 4
  25432391.652     6488047.581 4   -882917.112 1
  22283020.976    -2949965.013 8  -2390606.503 6
  23961122.930   -19141407.792 6  -4948528.166 2
 92  5 28  2 25  0.0030000  0  6 20  3 24 25 16 17
  21433108.548     -280986.584 9  -2168636.029 8
  23367183.495     2289212.539 7  -5073690.597 3
  24084258.365    25688078.499 6  12590846.728 4
  25439700.052     6526422.078 4   -853014.886 2
  22289156.768    -2917723.078 8  -2365482.909 6
  23949819.825   -19200789.036 6  -4994799.122 2
 92  5 28  2 25 30.0030000  0  6 20  3 24 25 16 17
  21439636.918     -246675.617 9  -2141900.223 8
  23360689.271     2255081.852 7  -5100285.917 3
  24103747.543    25790500.372 6  12670655.959 4
  25447094.673     6565291.109 4   -822727.312 2
  22295412.837    -2884848.306 8  -2339866.188 6
  23938581.265   -19259878.052 6  -5040842.391 2
 92  5 28  2 26  0.0030000  0  6 20  3 24 25 16 17
  21446288.713     -211724.663 9  -2114665.730 8
  23354211.236     2221032.547 7  -5126817.797 4
  24123250.961    25892993.718 6  12750520.859 4
  25454584.478     6604661.616 4   -792049.142 1
  22301792.420    -2851325.245 8  -2313744.301 6
  23927389.743   -19318660.179 6  -5086646.537 2
 92  5 28  2 26 30.0030000  0  6 20  3 24 25 16 17
  21453060.725     -176132.011 9  -2086931.198 8
  23347746.032     2187066.664 7  -5153284.704 4
  24142772.636    25995571.693 6  12830451.714 4
  25462182.658     6644561.362 4   -760958.407 2
  22308294.409    -2817159.703 8  -2287121.791 6
  23916264.025   -19377130.548 6  -5132207.760 2
 92  5 28  2 27  0.0030000  0  6 20  3 24 25 16 17
  21459957.571     -139895.704 9  -2058695.132 8
  23341297.976     2153186.918 7  -5179684.506 3
  24162310.441    26098248.242 6  12910459.370 4
  25469880.788     6685002.717 4   -729445.653 2
  22314916.974    -2782351.673 8  -2259998.652 6
  23905201.054   -19435289.387 6  -5177526.235 2
 92  5 28  2 27 30.0030000  0  6 20  3 24 25 16 17
  21466975.982     -103020.474 9  -2029961.206 8
  23334869.856     2119389.359 7  -5206020.217 4
  24181865.363    26201017.117 6  12990539.005 4
  25477677.461     6725985.196 5   -697511.444 1
  22321664.163    -2746897.805 8  -2232372.225 6
  23894191.685   -19493130.022 6  -5222596.756 2
 92  5 28  2 28  0.0030000  0  6 20  3 24 25 16 17
  21474115.089      -65504.260 9  -2000727.793 8
  23328450.670     2085676.703 7  -5232289.786 4
  24201440.192    26303882.657 6  13070693.901 4
  25485572.945     6767496.116 4   -665165.198 1
  22328531.030    -2710810.061 8  -2204251.892 6
  23883241.316   -19550668.394 6  -5267431.706 2
 92  5 28  2 28 30.0030000  0  6 20  3 24 25 16 17
  21481376.003      -27347.529 9  -1970995.285 8
  23322053.698     2052048.352 7  -5258493.688 4
  24221032.558    26406841.165 6  13150921.277 4
  25493573.956     6809520.383 4   -632418.997 1
  22335516.614    -2674095.472 8  -2175643.103 6
  23872347.338   -19607927.082 6  -5312048.745 3
 92  5 28  2 29  0.0030000  0  6 20  3 24 25 16 17
  21488758.632       11450.716 9  -1940762.890 8
  23315670.067     2018506.440 7  -5284630.215 4
  24240641.953    26509871.883 6  13231204.941 4
  25501662.027     6852040.762 4   -599286.445 1
  22342625.412    -2636735.447 8  -2146531.389 6
  23861500.937   -19664927.773 6  -5356464.757 3
 92  5 28  2 29 30.0030000  0  6 20  3 24 25 16 17
  21496264.716       50888.643 9  -1910032.069 8
  23309301.726     1985049.205 7  -5310700.748 4
  24260254.225    26612961.580 6  13311534.513 4
  25509846.001     6895045.812 4   -565775.957 1
  22349855.477    -2598738.754 8  -2116923.555 6
  23850699.205   -19721683.782 6  -5400690.090 3
 92  5 28  2 30  0.0030000  0  6 20  3 24 25 16 17
  21503889.277       90966.601 9  -1878802.493 8
  23302952.961     1951678.441 7  -5336703.908 4
  24279884.845    26716113.148 6  13391912.287 3
  25518127.228     6938520.411 4   -531899.682 1
  22357205.279    -2560128.164 8  -2086837.367 6
  23839944.210   -19778191.889 6  -5444722.260 3
 92  5 28  2 30 30.0030000  0  6 20  3 24 25 16 17
  21511638.223      131685.152 9  -1847073.774 8
  23296619.546     1918395.363 7  -5362638.764 4
  24299525.359    26819313.713 6  13472328.290 3
  25526493.027     6982481.254 4   -497644.609 1
  22364669.302    -2520896.746 8  -2056267.428 6
  23829242.729   -19834431.023 6  -5488544.891 2
 92  5 28  2 31  0.0030000  0  6 20  3 24 25 16 17
  21519507.385      173043.386 9  -1814846.587 8
  23290301.989     1885199.999 7  -5388505.236 4
  24319174.926    26922570.212 6  13552787.865 3
  25534955.118     7026937.913 4   -463003.092 1
  22372250.873    -2481052.604 8  -2025220.040 6
  23818591.852   -19890394.955 6  -5532153.026 2
 92  5 28  2 31 30.0030000  0  6 20  3 24 25 16 17
  21527499.972      215040.225 9  -1782121.794 8
  23284001.911     1852091.620 7  -5414303.944 4
  24338839.062    27025899.013 6  13633303.742 3
  25543500.762     7071887.019 5   -427977.979 1
  22379944.507    -2440623.478 8  -1993716.804 6
  23808000.514   -19946067.975 6  -5575534.533 2
 92  5 28  2 32  0.0030000  0  6 20  3 24 25 16 17
  21535614.694      257672.552 9  -1748901.805 8
  23277718.621     1819068.283 7  -5440036.367 4
  24358509.525    27129299.265 6  13713875.326 3
  25552144.888     7117326.279 4   -392570.708 1
  22387747.655    -2399608.551 8  -1961757.117 6
  23797461.520   -20001436.923 6  -5618679.020 2
 92  5 28  2 32 30.0030000  0  6 20  3 24 25 16 17
  21543844.927      300936.818 9  -1715189.402 8
  23271451.789     1786127.192 7  -5465704.753 4
  24378201.572    27232768.439 6  13794500.669 3
  25560889.265     7163267.413 5   -356772.398 1
  22395665.803    -2357998.526 8  -1929333.709 6
  23786983.564   -20056506.863 6  -5661590.556 2
 92  5 28  2 33  0.0030000  0  6 20  3 24 25 16 17
  21552201.312      344840.027 9  -1680979.124 8
  23265199.917     1753276.175 7  -5491302.898 4
  24397912.836    27336335.186 6  13875201.974 3
  25569725.437     7209710.411 5   -320583.302 1
  22403699.671    -2315787.203 8  -1896441.769 6
  23776564.067   -20111268.688 6  -5704261.988 2
 92  5 28  2 33 30.0030000  0  6 20  3 24 25 16 17
  21560677.044      389383.471 9  -1646269.955 8
  23258966.333     1720517.772 7  -5516828.896 4
  24417637.771    27439989.937 6  13955971.840 3
  25578660.842     7256650.346 5   -284006.697 1
  22411849.020    -2272968.737 8  -1863076.725 6
  23766201.591   -20165701.837 6  -5746677.314 2
 92  5 28  2 34  0.0030000  0  6 20  3 24 25 16 17
  21569274.222      434567.871 9  -1611061.344 8
  23252747.978     1687853.796 7  -5542281.321 4
  24437374.008    27543725.760 6  14036804.944 3
  25587686.783     7304091.900 5   -247039.357 1
  22420115.947    -2229529.260 8  -1829227.755 6
  23755904.200   -20219811.924 6  -5788840.924 2
 92  5 28  2 34 30.0030000  0  6 20  3 24 25 16 17
  21577993.716      480394.893 9  -1575351.994 8
  23246550.878     1655287.073 7  -5567657.970 4
  24457130.421    27647551.836 6  14117708.367 3
  25596810.067     7352036.822 5   -209679.785 1
  22428499.763    -2185470.420 8  -1794896.188 6
  23745671.114   -20273613.830 6  -5830764.415 2
 92  5 28  2 35  0.0030000  0  6 20  3 24 25 16 17
  21586837.413      526864.029 9  -1539142.302 8
  23240373.804     1622817.815 7  -5592958.663 4
  24476910.398    27751466.006 6  14198680.388 3
  25606022.959     7400466.896 5   -171942.064 1
  22437002.866    -2140790.933 8  -1760080.995 6
  23735486.445   -20327120.673 6  -5872457.970 2
 92  5 28  2 35 30.0030000  0  6 20  3 24 25 16 17
  21595801.927      573972.843 9  -1502434.139 8
  23234211.630     1590444.880 7  -5618184.275 4
  24496695.860    27855454.279 6  14279710.146 2
  25615325.459     7449371.095 5   -133835.068 1
  22445620.940    -2095482.330 8  -1724775.589 6
  23725354.899   -20380339.866 6  -5913927.364 2
 92  5 28  2 36  0.0030000  0  5 20  3 24 16 17
  21604889.176      621723.314 9  -1465225.991 8
  23228070.471     1558171.188 7  -5643332.589 4
  24516498.801    27959530.137 6  14360808.230 3
  22454365.077    -2049530.723 8  -1688969.130 6
  23715279.294   -20433287.556 6  -5955185.190 3
 92  5 28  2 36 30.0030000  0  5 20  3 24 16 17
  21614100.240      670116.817 9  -1427516.788 8
  23221947.510     1525999.541 8  -5668401.378 4
  24536316.072    28063692.249 6  14441973.498 3
  22463236.895    -2002923.643 8  -1652651.917 6
  23705264.187   -20485951.942 6  -5996222.259 3
 92  5 28  2 37  0.0030000  0  5 20  3 24 16 17
  21623428.972      719153.152 9  -1389306.668 8
  23215845.385     1493931.171 8  -5693389.674 4
  24556153.758    28167924.393 6  14523193.284 3
  22472231.718    -1955658.181 8  -1615821.667 6
  23695297.107   -20538316.251 6  -6037025.556 3
 92  5 28  2 37 30.0030000  0  5 20  3 24 16 17
  21632881.038      768828.137 9  -1350598.908 8
  23209761.906     1461963.057 8  -5718299.871 4
  24576003.227    28272222.275 6  14604464.338 3
  22481348.346    -1907751.808 8  -1578492.027 6
  23685392.474   -20590368.549 6  -6077585.720 2
 92  5 28  2 38  0.0030000  0  5 20  3 24 16 17
  21642455.180      819137.395 9  -1311396.905 8
  23203697.644     1430091.843 8  -5743134.562 4
  24595862.439    28376574.903 6  14685778.076 3
  22490579.166    -1859233.049 8  -1540685.185 6
  23675545.011   -20642117.163 6  -6117909.224 2
 92  5 28  2 38 30.0030000  0  5 20  3 24 16 17
  21652150.528      870083.137 9  -1271698.944 8
  23197651.370     1398321.097 8  -5767890.946 4
  24615730.554    28480978.894 6  14767131.804 3
  22499925.436    -1810125.306 8  -1502419.403 6
  23665752.381   -20693552.205 6  -6157988.375 3
 92  5 28  2 39  0.0030000  0  5 20  3 24 16 17
  21661963.934      921662.588 9  -1231507.180 8
  23191625.062     1366649.330 8  -5792570.204 4
  24635606.764    28585436.128 6  14848527.007 3
  22509381.130    -1760436.895 8  -1463701.142 6
  23656023.456   -20744685.763 6  -6197832.617 3
 92  5 28  2 39 30.0030000  0  5 20  3 24 16 17
  21671901.155      973871.419 9  -1190824.975 8
  23185615.812     1335074.042 8  -5817174.277 4
  24655495.745    28689950.049 6  14929966.398 3
  22518948.706    -1710169.707 8  -1424531.903 6
  23646347.085   -20795528.506 6  -6237450.235 3
 92  5 28  2 40  0.0030000  0  5 20  3 24 16 17
  21681956.134     1026709.140 9  -1149652.749 8
  23179627.218     1303596.103 8  -5841702.520 4
  24675389.343    28794514.179 6  15011444.929 3
  22528625.137    -1659311.613 8  -1384902.209 6
  23636726.595   -20846086.278 6  -6276845.834 3
 92  5 28  2 40 30.0030000  0  5 20  3 24 16 17
  21692129.651     1080172.859 9  -1107992.722 8
  23173654.513     1272214.455 8  -5866155.720 4
  24695301.439    28899128.052 6  15092962.169 3
  22538417.138    -1607843.681 8  -1344797.305 6
  23627160.397   -20896359.666 6  -6316019.824 3
 92  5 28  2 41  0.0030000  0  5 20  3 24 16 17
  21702422.575     1134264.129 9  -1065843.688 8
  23167701.594     1240931.386 8  -5890532.104 4
  24715217.581    29003784.148 6  15174512.332 3
  22548330.496    -1555751.584 8  -1304206.051 6
  23617653.469   -20946343.718 6  -6354968.340 3
 92  5 28  2 41 30.0030000  0  5 20  3 24 16 17
  21712833.048     1188985.988 9  -1023203.299 8
  23161768.701     1209751.644 8  -5914827.977 4
  24735134.443    29108483.117 6  15256095.921 3
  22558360.172    -1503051.221 8  -1263140.824 6
  23608197.145   -20996029.818 6  -6393684.702 3
 92  5 28  2 42  0.0030000  0  5 20  3 24 16 17
  21723368.205     1244336.826 9   -980072.806 8
  23155853.406     1178675.301 8  -5939043.291 4
  24755075.588    29213232.078 6  15337718.444 3
  22568501.192    -1449745.586 8  -1221603.954 6
  23598797.333   -21045416.817 6  -6432167.959 3
 92  5 28  2 42 30.0030000  0  5 20  3 24 16 17
  21734021.480     1300314.006 9   -936454.234 8
  23149961.855     1147701.579 8  -5963178.625 4
  24775010.677    29318035.470 6  15419383.353 3
  22578759.940    -1395842.661 8  -1179601.671 6
  23589459.607   -21094497.183 6  -6470412.296 3
 92  5 28  2 43  0.0030000  0  5 20  3 24 16 17
  21744789.995     1356915.103 9   -892349.484 8
  23144086.043     1116829.769 8  -5987234.549 4
  24794974.666    29422896.929 6  15501093.569 3
  22589128.951    -1341354.465 8  -1137143.332 6
  23580179.591   -21143258.242 6  -6508407.824 3
 92  5 28  2 43 30.0030000  0  5 20  3 24 16 17
  21755682.864     1414142.429 9   -847756.780 8
  23138233.194     1086063.478 8  -6011208.266 4
  24814940.094    29527833.521 6  15582862.337 3
  22599609.846    -1286274.741 8  -1094224.075 6
  23570960.943   -21191699.226 6  -6546153.964 3
 92  5 28  2 44  0.0030000  0  5 20  3 24 16 17
  21766689.714     1471993.514 9   -802678.023 8
  23132396.835     1055402.420 8  -6035099.995 4
  24834918.084    29632838.490 6  15664684.382 3
  22610211.646    -1230580.147 8  -1050825.698 6
  23561803.393   -21239814.212 6  -6583646.111 3
 92  5 28  2 44 30.0030000  0  5 20  3 24 16 17
  21777816.661     1530464.012 9   -757116.609 8
  23126581.611     1024844.002 8  -6058911.712 4
  24854912.112    29737900.106 6  15746550.526 3
  22620923.501    -1174270.623 8  -1006948.123 6
  23552710.598   -21287600.962 6  -6620882.479 3
 92  5 28  2 45  0.0030000  0  5 20  3 24 16 17
  21789060.947     1589550.413 9   -711075.274 8
  23120785.034      994386.174 8  -6082645.073 4
  24874918.133    29843017.354 6  15828460.026 3
  22631755.302    -1117352.853 8   -962596.630 6
  23543678.301   -21335068.528 6  -6657870.090 3
 92  5 28  2 45 30.0030000  0  5 20  3 24 16 17
  21800419.873     1649245.498 9   -664559.662 8
  23115009.562      964023.701 8  -6106304.160 4
  24894931.887    29948182.294 6  15910406.742 3
  22642702.883    -1059837.482 8   -917779.451 6
  23534702.994   -21382229.644 6  -6694618.909 3
 92  5 28  2 46  0.0030000  0  5 20  3 24 16 17
  21811896.139     1709545.958 9   -617572.307 8
  23109248.870      933755.068 8  -6129890.065 4
  24914948.340    30053389.198 6  15992386.129 3
  22653755.362    -1001735.746 8   -872505.358 6
  23525790.614   -21429082.333 6  -6731127.439 3
 92  5 28  2 46 30.0030000  0  5 20  3 24 16 17
  21823485.216     1770453.213 9   -570112.133 8
  23103506.645      903583.753 8  -6153400.156 5
  24934981.222    30158652.666 6  16074409.564 3
  22664922.391     -943062.712 8   -826786.095 6
  23516927.430   -21475634.571 6  -6767401.826 3
 92  5 28  2 47  0.0030000  0  5 20  3 24 16 17
  21835193.400     1831973.390 9   -522174.363 8
  23097784.656      873517.772 8  -6176828.176 5
  24955019.140    30263975.753 6  16156479.471 3
  22676193.988     -883821.584 8   -780624.190 6
  23508125.943   -21521902.666 7  -6803454.861 3
 92  5 28  2 47 30.0030000  0  5 20  3 24 16 17
  21847015.056     1894105.417 9   -473759.816 8
  23092078.856      843558.195 8  -6200173.277 5
  24975073.846    30369341.670 6  16238582.754 3
  22687586.401     -824006.014 8   -734014.650 6
  23499371.554   -21567896.866 7  -6839294.398 3
 92  5 28  2 48  0.0030000  0  5 20  3 24 16 17
  21858956.150     1956849.848 9   -424868.077 8
  23086402.436      813707.279 8  -6223433.700 5
  24995130.171    30474741.860 6  16320712.721 2
  22699069.801     -763610.633 8   -686953.333 6
  23490671.606   -21613623.666 7  -6874925.584 3
 92  5 28  2 48 30.0040000  0  5 20  3 24 16 17
  21871010.235     2020202.342 9   -375502.505 8
  23080742.834      783959.792 8  -6246613.523 5
  25015192.193    30580160.339 6  16402856.941 2
  22710674.077     -702639.819 8   -639443.607 6
  23482021.575   -21659095.295 7  -6910357.947 3
 92  5 28  2 49  0.0040000  0  5 20  3 24 16 17
  21883183.487     2084153.018 9   -325670.838 8
  23075100.141      754313.936 8  -6269714.174 5
  25035246.090    30685577.651 6  16485000.261 2
  22722381.992     -641098.216 8   -591489.108 6
  23473417.561   -21704307.148 6  -6945587.934 3
 92  5 28  2 49 30.0040000  0  5 20  3 24 16 17
  21895464.186     2148697.275 9   -275376.619 8
  23069477.413      724764.475 8  -6292739.713 5
  25055311.139    30790999.335 6  16567147.041 2
  22734201.370     -578988.315 8   -543091.799 6
  23464862.114   -21749241.866 6  -6980601.919 3
 92  5 28  2 50  0.0040000  0  5 20  3 24 16 17
  21907858.175     2213831.368 9   -224622.793 8
  23063872.703      695309.392 8  -6315691.703 5
  25075378.077    30896448.487 6  16649315.105 2
  22746128.523     -516311.375 8   -494252.622 6
  23456364.767   -21793885.394 7  -7015389.001 3
 92  5 28  2 50 30.0040000  0  5 20  3 24 16 17
  21920365.697     2279554.292 8   -173410.141 8
  23058287.600      665949.824 8  -6338569.267 5
  25095457.007    31001938.634 6  16731515.185 2
  22758164.201     -453072.719 8   -444975.731 6
  23447929.836   -21838228.600 7  -7049942.056 3
 92  5 28  2 51  0.0040000  0  5 20  3 24 16 17
  21932980.633     2345861.288 8   -121742.372 8
  23052716.916      636683.716 8  -6361374.023 5
  25115537.255    31107474.089 6  16813750.614 2
  22770303.847     -389277.415 8   -395265.112 6
  23439552.166   -21882263.580 7  -7084254.932 3
 92  5 28  2 51 30.0040000  0  5 20  3 24 16 17
  21945713.149     2412758.715 9    -69614.519 8
  23047166.918      607519.520 8  -6384099.338 5
  25135629.106    31213054.357 6  16896020.940 2
  22782551.448     -324908.741 8   -345107.694 6
  23431229.597   -21925974.922 7  -7118315.679 3
 92  5 28  2 52  0.0040000  0  5 20  3 24 16 17
  21958554.609     2480241.328 8    -17030.683 8
  23041636.227      578454.378 8  -6406747.471 5
  25155721.257    31318660.927 6  16978311.648 2
  22794907.004     -259976.538 8   -294511.184 6
  23422973.403   -21969367.028 7  -7152127.669 3
 92  5 28  2 52 30.0040000  0  5 20  3 24 16 17
  21971505.044     2548306.697 8     36007.245 8
  23036123.254      549488.421 8  -6429318.315 5
  25175818.983    31424258.486 6  17060595.474 2
  22807369.707     -194494.731 8   -243486.391 6
  23414776.058   -22012448.075 7  -7185697.213 3
 92  5 28  2 53  0.0040000  0  5 20  3 24 16 17
  21984570.329     2616952.447 8     89497.423 8
  23030632.405      520621.122 8  -6451812.300 5
  25195907.986    31529835.714 6  17142863.420 2
  22819935.537     -128452.753 8   -192025.110 6
  23406637.352   -22055216.797 6  -7219023.397 3
 92  5 28  2 53 30.0040000  0  5 20  3 24 16 17
  21997743.359     2686179.766 8    143440.772 8
  23025158.315      491856.352 8  -6474226.372 5
  25215995.819    31635401.826 6  17225122.679 2
  22832607.465      -61847.369 8   -140124.804 6
  23398552.339   -22097689.173 7  -7252118.672 3
 92  5 28  2 54  0.0040000  0  5 20  3 24 16 17
  22011025.724     2755990.972 8    197839.091 8
  23019705.030      463198.438 8  -6496557.187 5
  25236083.803    31740967.062 5  17307381.244 2
  22845389.536        5302.948 8    -87799.902 6
  23390529.683   -22139871.413 7  -7284987.874 3
 92  5 28  2 54 30.0040000  0  5 20  3 24 16 17
  22024422.160     2826384.704 9    252691.323 8
  23014270.512      434648.965 8  -6518803.501 5
  25256173.675    31846545.968 5  17389650.539 2
  22858274.436       73005.394 8    -35044.734 6
  23382556.973   -22181759.979 7  -7317628.259 3
 92  5 28  2 55  0.0040000  0  5 20  3 24 16 17
  22037931.887     2897362.757 8    307998.887 8
  23008860.337      406212.089 8  -6540962.071 5
  25276273.800    31952170.699 5  17471955.545 2
  22871262.494      141267.527 8     18146.547 6
  23374643.651   -22223349.370 7  -7350035.499 3
 92  5 28  2 55 30.0040000  0  5 20  3 24 16 17
  22051549.540     2968923.294 9    363760.327 8
  23003470.579      377888.302 8  -6563032.526 5
  25296380.850    32057838.560 5  17554294.052 2
  22884356.110      210068.227 8     71757.463 6
  23366782.493   -22264647.466 7  -7382215.741 3
 92  5 28  2 56  0.0040000  0  5 20  3 24 16 17
  22065273.589     3041062.842 8    419972.940 8
  22998100.726      349676.449 8  -6585015.749 5
  25316501.691    32163541.970 5  17636660.333 2
  22897551.565      279409.503 8    125789.629 6
  23358986.600   -22305635.278 7  -7414154.209 3
 92  5 28  2 56 30.0040000  0  5 20  3 24 16 17
  22079113.328     3113783.586 8    476638.433 8
  22992753.478      321581.774 8  -6606907.671 5
  25336621.842    32269294.216 5  17719064.685 2
  22910854.495      349309.730 8    180257.336 6
  23351244.969   -22346308.959 7  -7445847.911 3
 92  5 28  2 57  0.0040000  0  5 20  3 24 16 17
  22093062.131     3187092.495 8    533762.240 8
  22987433.001      293613.633 8  -6628700.986 5
  25356756.833    32375100.266 5  17801510.949 2
  22924261.514      419773.652 8    235164.291 6
  23343565.876   -22386676.297 7  -7477302.892 3
 92  5 28  2 57 30.0040000  0  5 20  3 24 16 17
  22107128.423     3260998.464 8    591351.274 8
  22982136.778      265784.079 8  -6650386.301 5
  25376903.815    32480957.706 5  17883997.217 2
  22937777.117      490809.921 8    290517.210 6
  23335943.203   -22426727.523 7  -7508511.571 3
